Bel Air, Maryland - USA |
Today's Data File |
5/6/26
Time Wind Dir Wind Spd Wind Gust Hum In Humidity Temp In Temp Raw Barom Wind Chill Press Alt Cloud Base Dens Alt Temp Out R DailyRain 24HrRain RainRate
� mph mph % % �F �F in �F ft ft ft �F/hr in in in/hr
12:00am 191 3 10 40 70 71.1 66.8 29.26 66.8 615 2522 1285 -0.64 0.00 0.00 0.000
12:01am 187 6 6 40 70 71.1 66.7 29.26 66.7 615 2521 1278 -0.72 0.00 0.00 0.000
12:02am 185 3 6 40 70 71.1 66.7 29.26 66.7 616 2521 1279 -0.71 0.00 0.00 0.000
12:03am 193 4 6 40 70 71.2 66.7 29.26 66.7 616 2521 1279 -0.70 0.00 0.00 0.000
12:04am 244 2 9 39 70 71.2 66.7 29.26 66.7 617 2521 1280 -0.69 0.00 0.00 0.000
12:05am 232 4 9 39 71 71.2 66.7 29.26 66.7 616 2422 1279 -0.68 0.00 0.00 0.000
12:06am 211 3 5 40 71 71.2 66.6 29.26 66.6 617 2421 1274 -0.77 0.00 0.00 0.000
12:07am 212 2 5 40 71 71.2 66.6 29.26 66.6 617 2421 1274 -0.76 0.00 0.00 0.000
12:08am 166 3 5 39 71 71.2 66.6 29.26 66.6 617 2421 1274 -0.74 0.00 0.00 0.000
12:09am 211 6 9 40 71 71.2 66.6 29.26 66.6 617 2421 1274 -0.73 0.00 0.00 0.000
12:10am 195 2 9 40 71 71.2 66.6 29.26 66.6 617 2421 1274 -0.72 0.00 0.00 0.000
12:11am 210 2 3 40 71 71.2 66.6 29.26 66.6 617 2421 1274 -0.71 0.00 0.00 0.000
12:12am 192 4 4 40 71 71.2 66.7 29.26 66.7 616 2422 1279 -0.60 0.00 0.00 0.000
12:13am 294 4 7 40 71 71.2 66.6 29.26 66.6 615 2421 1272 -0.69 0.00 0.00 0.000
12:14am 212 3 7 39 71 71.2 66.6 29.26 66.6 615 2421 1272 -0.67 0.00 0.00 0.000
12:15am 211 9 12 40 71 71.2 66.7 29.26 66.7 614 2422 1277 -0.57 0.00 0.00 0.000
12:16am 209 2 9 40 71 71.2 66.7 29.26 66.7 615 2422 1278 -0.56 0.00 0.00 0.000
12:17am 209 2 9 40 71 71.2 66.7 29.26 66.7 615 2422 1278 -0.55 0.00 0.00 0.000
12:18am 171 0 9 40 71 71.2 66.6 29.26 66.6 615 2421 1272 -0.64 0.00 0.00 0.000
12:19am 171 1 9 39 71 71.1 66.7 29.26 66.7 616 2422 1279 -0.53 0.00 0.00 0.000
12:20am 171 2 9 40 71 71.1 66.6 29.26 66.6 616 2421 1273 -0.62 0.00 0.00 0.000
12:21am 212 2 5 39 71 71.1 66.6 29.26 66.6 617 2421 1274 -0.61 0.00 0.00 0.000
12:22am 199 7 7 40 72 71.1 66.6 29.26 66.6 617 2324 1274 -0.60 0.00 0.00 0.000
12:23am 142 2 7 39 72 71.1 66.5 29.26 66.5 617 2324 1267 -0.69 0.00 0.00 0.000
12:24am 213 1 7 40 72 71.1 66.5 29.26 66.5 617 2324 1267 -0.67 0.00 0.00 0.000
12:25am 222 9 9 40 72 71.1 66.4 29.26 66.4 617 2323 1261 -0.76 0.00 0.00 0.000
12:26am 191 6 9 40 72 71.1 66.4 29.26 66.4 617 2323 1261 -0.75 0.00 0.00 0.000
12:27am 184 2 9 40 72 71.1 66.4 29.26 66.4 617 2323 1261 -0.74 0.00 0.00 0.000
12:28am 159 2 9 40 72 71.1 66.5 29.26 66.5 617 2324 1267 -0.63 0.00 0.00 0.000
12:29am 202 3 9 40 72 71.1 66.5 29.26 66.5 617 2324 1267 -0.62 0.00 0.00 0.000
12:30am 260 1 9 40 72 71.1 66.5 29.26 66.5 617 2324 1267 -0.61 0.00 0.00 0.000
12:31am 193 2 2 40 72 71.1 66.5 29.26 66.5 617 2324 1267 -0.60 0.00 0.00 0.000
12:32am 241 2 5 39 72 71.1 66.5 29.26 66.5 617 2324 1267 -0.59 0.00 0.00 0.000
12:33am 265 3 5 40 72 71.1 66.4 29.26 66.4 617 2323 1261 -0.68 0.00 0.00 0.000
12:34am 206 4 5 40 72 71.1 66.4 29.26 66.4 617 2323 1261 -0.66 0.00 0.00 0.000
12:35am 173 2 5 40 72 71.1 66.3 29.26 66.3 617 2322 1255 -0.75 0.00 0.00 0.000
12:36am 222 4 5 40 72 71.1 66.3 29.26 66.3 616 2322 1253 -0.74 0.00 0.00 0.000
12:37am 156 2 5 40 73 71.1 66.2 29.26 66.2 617 2225 1248 -0.83 0.00 0.00 0.000
12:38am 236 3 5 40 73 71.1 66.2 29.26 66.2 616 2225 1247 -0.81 0.00 0.00 0.000
12:39am 193 3 6 40 73 71.1 66.1 29.26 66.1 616 2224 1241 -0.90 0.00 0.00 0.000
12:40am 166 3 6 39 73 71.1 66.1 29.26 66.1 616 2224 1241 -0.88 0.00 0.00 0.000
12:41am 193 2 4 39 73 71.1 66.1 29.26 66.1 615 2224 1239 -0.87 0.00 0.00 0.000
12:42am 191 0 4 39 73 71.1 66.1 29.26 66.1 615 2224 1239 -0.86 0.00 0.00 0.000
12:43am 191 1 4 39 73 71.2 66.2 29.26 66.2 615 2225 1246 -0.74 0.00 0.00 0.000
12:44am 191 3 4 40 73 71.2 66.1 29.26 66.1 614 2224 1238 -0.83 0.00 0.00 0.000
12:45am 191 1 4 40 73 71.2 66.0 29.26 66.0 615 2223 1233 -0.91 0.00 0.00 0.000
12:46am 178 2 4 40 73 71.2 65.9 29.26 65.9 615 2222 1227 -1.00 0.00 0.00 0.000
12:47am 259 6 6 40 73 71.2 65.9 29.26 65.9 615 2222 1227 -0.98 0.00 0.00 0.000
12:48am 192 5 7 40 73 71.2 65.9 29.26 65.9 615 2222 1227 -0.97 0.00 0.00 0.000
12:49am 211 1 7 40 73 71.2 66.0 29.26 66.0 615 2223 1233 -0.85 0.00 0.00 0.000
12:50am 176 3 7 40 73 71.2 65.9 29.26 65.9 615 2222 1227 -0.93 0.00 0.00 0.000
12:51am 176 0 3 40 74 71.2 65.9 29.26 65.9 615 2128 1227 -0.92 0.00 0.00 0.000
12:52am 176 3 4 40 74 71.2 65.9 29.26 65.9 615 2128 1227 -0.90 0.00 0.00 0.000
12:53am 240 1 5 39 74 71.2 65.9 29.26 65.9 616 2128 1228 -0.89 0.00 0.00 0.000
12:54am 239 2 5 40 74 71.2 65.9 29.26 65.9 616 2128 1228 -0.87 0.00 0.00 0.000
12:55am 185 3 5 40 74 71.2 65.8 29.26 65.8 617 2127 1222 -0.96 0.00 0.00 0.000
12:56am 210 2 5 39 74 71.2 65.8 29.26 65.8 617 2127 1222 -0.94 0.00 0.00 0.000
12:57am 177 4 6 40 74 71.2 65.8 29.26 65.8 618 2127 1224 -0.93 0.00 0.00 0.000
12:58am 269 3 6 40 74 71.2 65.8 29.26 65.8 617 2127 1222 -0.91 0.00 0.00 0.000
12:59am 198 3 6 40 74 71.4 65.8 29.26 65.8 618 2127 1224 -0.90 0.00 0.00 0.000
1:00am 196 0 6 40 74 71.4 65.7 29.26 65.7 618 2126 1217 -0.98 0.00 0.00 0.000
1:01am 183 2 4 40 74 71.4 65.7 29.26 65.7 618 2126 1217 -0.97 0.00 0.00 0.000
1:02am 144 4 4 40 74 71.4 65.7 29.26 65.7 618 2126 1217 -0.95 0.00 0.00 0.000
1:03am 183 2 4 40 74 71.4 65.7 29.26 65.7 618 2126 1217 -0.93 0.00 0.00 0.000
1:04am 183 2 4 40 74 71.4 65.7 29.26 65.7 618 2126 1217 -0.92 0.00 0.00 0.000
1:05am 183 2 4 40 75 71.4 65.6 29.26 65.6 618 2032 1211 -1.00 0.00 0.00 0.000
1:06am 183 2 3 40 75 71.4 65.6 29.26 65.6 618 2032 1211 -0.98 0.00 0.00 0.000
1:07am 234 3 4 40 75 71.4 65.5 29.26 65.5 618 2031 1204 -1.07 0.00 0.00 0.000
1:08am 194 2 6 40 75 71.4 65.5 29.26 65.5 618 2031 1204 -1.05 0.00 0.00 0.000
1:09am 170 2 6 40 75 71.4 65.5 29.26 65.5 618 2031 1204 -1.03 0.00 0.00 0.000
1:10am 171 3 6 40 75 71.4 65.5 29.26 65.5 618 2031 1204 -1.01 0.00 0.00 0.000
1:11am 170 1 3 40 75 71.4 65.5 29.26 65.5 618 2031 1204 -1.00 0.00 0.00 0.000
1:12am 202 0 3 40 75 71.4 65.4 29.26 65.4 618 2030 1198 -1.08 0.00 0.00 0.000
1:13am 205 0 3 40 75 71.4 65.4 29.26 65.4 618 2030 1198 -1.06 0.00 0.00 0.000
1:14am 177 4 4 40 75 71.4 65.4 29.26 65.4 618 2030 1198 -1.05 0.00 0.00 0.000
1:15am 170 3 4 40 75 71.4 65.3 29.26 65.3 618 2029 1191 -1.13 0.00 0.00 0.000
1:16am 171 2 3 40 75 71.4 65.3 29.26 65.3 618 2029 1191 -1.11 0.00 0.00 0.000
1:17am 171 2 3 40 75 71.4 65.2 29.26 65.2 618 2028 1185 -1.19 0.00 0.00 0.000
1:18am 170 5 7 40 75 71.4 65.2 29.26 65.2 619 2028 1186 -1.17 0.00 0.00 0.000
1:19am 189 2 7 40 75 71.4 65.2 29.26 65.2 618 2028 1185 -1.15 0.00 0.00 0.000
1:20am 177 0 7 40 75 71.4 65.1 29.26 65.1 618 2028 1178 -1.23 0.00 0.00 0.000
1:21am 235 2 4 40 76 71.6 65.1 29.26 65.1 619 1936 1180 -1.21 0.00 0.00 0.000
1:22am 219 1 4 40 76 71.6 65.1 29.26 65.1 618 1936 1178 -1.19 0.00 0.00 0.000
1:23am 192 3 4 40 76 71.6 65.1 29.26 65.1 618 1936 1178 -1.17 0.00 0.00 0.000
1:24am 191 1 4 40 76 71.6 65.0 29.26 65.0 619 1935 1173 -1.25 0.00 0.00 0.000
1:25am 214 3 4 40 76 71.6 65.0 29.26 65.0 619 1935 1173 -1.23 0.00 0.00 0.000
1:26am 197 2 4 40 76 71.6 65.0 29.26 65.0 619 1935 1173 -1.21 0.00 0.00 0.000
1:27am 229 1 5 40 76 71.6 64.9 29.26 64.9 619 1934 1167 -1.29 0.00 0.00 0.000
1:28am 229 2 5 40 76 71.6 64.9 29.26 64.9 619 1934 1167 -1.27 0.00 0.00 0.000
1:29am 165 2 5 40 76 71.6 64.9 29.26 64.9 619 1934 1167 -1.25 0.00 0.00 0.000
1:30am 165 1 5 40 76 71.6 64.9 29.26 64.9 620 1934 1168 -1.23 0.00 0.00 0.000
1:31am 186 1 3 40 77 71.6 64.9 29.26 64.9 619 1843 1167 -1.21 0.00 0.00 0.000
1:32am 182 1 3 40 77 71.6 64.8 29.26 64.8 619 1843 1160 -1.29 0.00 0.00 0.000
1:33am 182 3 3 40 77 71.6 64.8 29.26 64.8 619 1843 1160 -1.27 0.00 0.00 0.000
1:34am 182 1 3 40 77 71.6 64.8 29.26 64.8 619 1843 1160 -1.25 0.00 0.00 0.000
1:35am 178 2 3 40 77 71.6 64.8 29.26 64.8 619 1843 1160 -1.23 0.00 0.00 0.000
1:36am 226 2 3 40 77 71.6 64.8 29.26 64.8 619 1843 1160 -1.20 0.00 0.00 0.000
1:37am 192 5 5 40 77 71.6 64.8 29.26 64.8 619 1843 1160 -1.18 0.00 0.00 0.000
1:38am 226 3 6 41 77 71.6 64.8 29.26 64.8 619 1843 1160 -1.17 0.00 0.00 0.000
1:39am 213 2 6 40 77 71.8 64.8 29.26 64.8 619 1843 1160 -1.15 0.00 0.00 0.000
1:40am 213 1 6 40 77 71.8 64.9 29.26 64.9 620 1843 1168 -1.03 0.00 0.00 0.000
1:41am 276 4 4 40 77 71.8 64.8 29.26 64.8 620 1843 1161 -1.11 0.00 0.00 0.000
1:42am 258 1 4 40 77 71.8 64.8 29.26 64.8 620 1843 1161 -1.09 0.00 0.00 0.000
1:43am 258 2 4 40 77 71.8 64.8 29.26 64.8 620 1843 1161 -1.07 0.00 0.00 0.000
1:44am 258 0 4 40 77 71.8 64.8 29.26 64.8 620 1843 1161 -1.05 0.00 0.00 0.000
1:45am 252 2 4 40 77 71.8 64.7 29.26 64.7 620 1842 1155 -1.14 0.00 0.00 0.000
1:46am 218 3 4 40 77 71.8 64.7 29.26 64.7 620 1842 1155 -1.12 0.00 0.00 0.000
1:47am 211 3 4 40 77 71.8 64.6 29.26 64.6 620 1841 1148 -1.20 0.00 0.00 0.000
1:48am 207 2 4 40 77 71.8 64.5 29.26 64.5 621 1840 1143 -1.28 0.00 0.00 0.000
1:49am 202 4 4 40 78 71.8 64.5 29.26 64.5 621 1751 1143 -1.26 0.00 0.00 0.000
1:50am 204 3 5 40 78 71.8 64.5 29.26 64.5 621 1751 1143 -1.24 0.00 0.00 0.000
1:51am 204 2 3 40 78 71.8 64.6 29.25 64.6 621 1752 1151 -1.12 0.00 0.00 0.000
1:52am 204 0 3 40 78 71.8 64.5 29.26 64.5 621 1751 1143 -1.20 0.00 0.00 0.000
1:53am 204 1 3 40 78 71.8 64.5 29.26 64.5 621 1751 1143 -1.18 0.00 0.00 0.000
1:54am 187 2 4 40 78 71.8 64.5 29.25 64.5 621 1751 1144 -1.16 0.00 0.00 0.000
1:55am 212 4 11 40 78 71.8 64.5 29.26 64.5 621 1751 1143 -1.14 0.00 0.00 0.000
1:56am 183 4 6 40 78 71.8 64.5 29.25 64.5 621 1751 1144 -1.12 0.00 0.00 0.000
1:57am 234 2 6 41 78 71.8 64.5 29.26 64.5 620 1751 1142 -1.10 0.00 0.00 0.000
1:58am 201 3 6 40 78 71.8 64.5 29.25 64.5 621 1751 1144 -1.08 0.00 0.00 0.000
1:59am 189 3 6 40 78 71.8 64.5 29.25 64.5 622 1751 1145 -1.06 0.00 0.00 0.000
2:00am 179 2 6 40 78 71.9 64.5 29.25 64.5 622 1751 1145 -1.05 0.00 0.00 0.000
2:01am 169 3 3 40 78 71.9 64.5 29.25 64.5 623 1751 1146 -1.03 0.00 0.00 0.000
2:02am 181 4 5 40 78 71.9 64.5 29.25 64.5 624 1751 1148 -1.01 0.00 0.00 0.000
2:03am 204 2 5 40 79 71.9 64.5 29.25 64.5 625 1662 1149 -1.00 0.00 0.00 0.000
2:04am 204 0 5 40 79 71.9 64.5 29.25 64.5 624 1662 1148 -0.98 0.00 0.00 0.000
2:05am 204 0 5 40 79 71.9 64.4 29.25 64.4 624 1662 1141 -1.06 0.00 0.00 0.000
2:06am 204 1 3 40 79 71.9 64.4 29.25 64.4 626 1662 1143 -1.04 0.00 0.00 0.000
2:07am 202 4 4 40 79 71.9 64.3 29.25 64.3 626 1661 1137 -1.13 0.00 0.00 0.000
2:08am 173 1 4 40 79 71.9 64.3 29.25 64.3 627 1661 1138 -1.11 0.00 0.00 0.000
2:09am 226 2 4 40 79 71.9 64.4 29.25 64.4 626 1662 1143 -0.99 0.00 0.00 0.000
2:10am 168 1 5 40 79 71.9 64.3 29.25 64.3 626 1661 1137 -1.07 0.00 0.00 0.000
2:11am 210 0 4 40 79 71.9 64.3 29.25 64.3 627 1661 1138 -1.05 0.00 0.00 0.000
2:12am 212 3 4 40 79 71.9 64.3 29.25 64.3 627 1661 1138 -1.04 0.00 0.00 0.000
2:13am 190 3 5 40 79 71.9 64.2 29.25 64.2 627 1660 1132 -1.12 0.00 0.00 0.000
2:14am 189 1 5 40 79 71.9 64.2 29.25 64.2 626 1660 1130 -1.10 0.00 0.00 0.000
2:15am 204 5 7 40 79 71.9 64.2 29.25 64.2 626 1660 1130 -1.08 0.00 0.00 0.000
2:16am 158 2 5 40 80 71.9 64.2 29.25 64.2 628 1573 1133 -1.06 0.00 0.00 0.000
2:17am 158 2 5 40 79 71.9 64.2 29.25 64.2 628 1660 1133 -1.05 0.00 0.00 0.000
2:18am 166 3 6 40 80 72.1 64.2 29.25 64.2 627 1573 1132 -1.03 0.00 0.00 0.000
2:19am 222 6 6 40 80 72.1 64.1 29.25 64.1 625 1572 1123 -1.11 0.00 0.00 0.000
2:20am 169 0 6 40 80 72.1 64.1 29.25 64.1 627 1572 1125 -1.09 0.00 0.00 0.000
2:21am 169 2 2 40 80 72.1 64.1 29.25 64.1 627 1572 1125 -1.08 0.00 0.00 0.000
2:22am 177 3 3 40 80 72.1 64.1 29.25 64.1 628 1572 1126 -1.06 0.00 0.00 0.000
2:23am 202 7 7 40 80 72.1 64.1 29.25 64.1 629 1572 1127 -1.04 0.00 0.00 0.000
2:24am 192 2 7 40 80 72.1 64.1 29.25 64.1 630 1572 1129 -1.02 0.00 0.00 0.000
2:25am 188 3 7 40 80 72.1 64.1 29.25 64.1 630 1572 1129 -1.01 0.00 0.00 0.000
2:26am 178 4 5 40 80 72.1 64.1 29.25 64.1 629 1572 1127 -0.99 0.00 0.00 0.000
2:27am 174 5 7 40 80 72.1 64.1 29.25 64.1 630 1572 1129 -0.97 0.00 0.00 0.000
2:28am 174 3 7 40 80 72.1 64.2 29.25 64.2 629 1573 1134 -0.86 0.00 0.00 0.000
2:29am 183 1 7 40 80 72.1 64.3 29.25 64.3 629 1573 1140 -0.74 0.00 0.00 0.000
2:30am 164 1 7 40 80 72.1 64.3 29.25 64.3 629 1573 1140 -0.73 0.00 0.00 0.000
2:31am 178 3 6 40 80 72.1 64.3 29.25 64.3 629 1573 1140 -0.72 0.00 0.00 0.000
2:32am 179 2 6 40 80 72.1 64.4 29.25 64.4 629 1574 1147 -0.61 0.00 0.00 0.000
2:33am 203 4 6 40 80 72.1 64.4 29.25 64.4 629 1574 1147 -0.60 0.00 0.00 0.000
2:34am 210 5 6 40 80 72.1 64.4 29.25 64.4 629 1574 1147 -0.59 0.00 0.00 0.000
2:35am 175 3 6 40 80 72.1 64.4 29.24 64.4 631 1574 1149 -0.58 0.00 0.00 0.000
2:36am 246 2 7 40 80 72.3 64.4 29.24 64.4 631 1574 1149 -0.57 0.00 0.00 0.000
2:37am 196 1 7 40 80 72.3 64.4 29.24 64.4 632 1574 1150 -0.56 0.00 0.00 0.000
2:38am 196 2 7 40 80 72.3 64.4 29.24 64.4 632 1574 1150 -0.55 0.00 0.00 0.000
2:39am 196 2 7 40 80 72.3 64.4 29.24 64.4 632 1574 1150 -0.54 0.00 0.00 0.000
2:40am 162 3 8 40 80 72.3 64.4 29.24 64.4 632 1574 1150 -0.53 0.00 0.00 0.000
2:41am 213 3 4 40 80 72.3 64.4 29.24 64.4 632 1574 1150 -0.52 0.00 0.00 0.000
2:42am 188 4 6 40 80 72.3 64.4 29.24 64.4 633 1574 1151 -0.52 0.00 0.00 0.000
2:43am 162 5 6 40 80 72.3 64.4 29.24 64.4 633 1574 1151 -0.51 0.00 0.00 0.000
2:44am 197 2 7 40 80 72.3 64.5 29.24 64.5 633 1575 1158 -0.40 0.00 0.00 0.000
2:45am 161 8 9 40 80 72.3 64.5 29.24 64.4 633 1575 1158 -0.39 0.00 0.00 0.000
2:46am 191 3 8 40 80 72.3 64.5 29.24 64.5 633 1575 1158 -0.38 0.00 0.00 0.000
2:47am 187 3 8 40 80 72.3 64.5 29.24 64.5 633 1575 1158 -0.38 0.00 0.00 0.000
2:48am 247 5 8 40 80 72.3 64.5 29.24 64.5 633 1575 1158 -0.37 0.00 0.00 0.000
2:49am 214 4 8 40 80 72.3 64.5 29.24 64.5 633 1575 1158 -0.37 0.00 0.00 0.000
2:50am 135 1 8 40 80 72.3 64.5 29.24 64.5 633 1575 1158 -0.36 0.00 0.00 0.000
2:51am 175 3 3 40 80 72.3 64.5 29.24 64.5 633 1575 1158 -0.35 0.00 0.00 0.000
2:52am 213 5 8 40 80 72.3 64.5 29.24 64.5 633 1575 1158 -0.35 0.00 0.00 0.000
2:53am 180 6 8 40 80 72.3 64.5 29.24 64.5 633 1575 1158 -0.34 0.00 0.00 0.000
2:54am 173 2 8 40 80 72.3 64.6 29.24 64.6 633 1575 1164 -0.24 0.00 0.00 0.000
2:55am 173 1 8 40 80 72.3 64.6 29.24 64.6 633 1575 1164 -0.23 0.00 0.00 0.000
2:56am 224 7 7 40 80 72.3 64.6 29.24 64.6 633 1575 1164 -0.23 0.00 0.00 0.000
2:57am 160 6 7 40 80 72.4 64.6 29.24 64.6 633 1575 1164 -0.23 0.00 0.00 0.000
2:58am 162 2 9 40 80 72.4 64.6 29.24 64.6 633 1575 1164 -0.22 0.00 0.00 0.000
2:59am 167 6 9 40 80 72.4 64.6 29.24 64.6 634 1575 1165 -0.22 0.00 0.00 0.000
3:00am 287 2 9 40 80 72.4 64.6 29.24 64.6 633 1575 1164 -0.21 0.00 0.00 0.000
3:01am 213 0 8 40 80 72.4 64.6 29.24 64.6 633 1575 1164 -0.21 0.00 0.00 0.000
3:02am 191 2 8 40 80 72.4 64.6 29.24 64.6 633 1575 1164 -0.21 0.00 0.00 0.000
3:03am 210 3 8 40 80 72.4 64.6 29.24 64.6 633 1575 1164 -0.20 0.00 0.00 0.000
3:04am 192 3 8 40 80 72.4 64.6 29.24 64.6 633 1575 1164 -0.20 0.00 0.00 0.000
3:05am 192 2 8 40 80 72.4 64.6 29.24 64.6 634 1575 1167 -0.20 0.00 0.00 0.000
3:06am 193 3 3 40 80 72.4 64.6 29.24 64.6 634 1575 1165 -0.19 0.00 0.00 0.000
3:07am 168 4 5 40 80 72.4 64.6 29.24 64.6 634 1575 1165 -0.19 0.00 0.00 0.000
3:08am 172 1 7 40 80 72.4 64.7 29.24 64.7 634 1576 1172 -0.09 0.00 0.00 0.000
3:09am 189 4 7 40 80 72.4 64.7 29.24 64.7 634 1576 1173 -0.09 0.00 0.00 0.000
3:10am 209 3 7 40 80 72.4 64.8 29.24 64.8 634 1577 1179 0.01 0.00 0.00 0.000
3:11am 226 3 6 40 80 72.4 64.8 29.24 64.8 635 1577 1181 0.01 0.00 0.00 0.000
3:12am 172 2 6 40 80 72.4 64.8 29.24 64.8 635 1577 1181 0.01 0.00 0.00 0.000
3:13am 187 3 6 40 80 72.3 64.8 29.24 64.8 635 1577 1181 0.01 0.00 0.00 0.000
3:14am 256 3 6 40 80 72.3 64.8 29.24 64.8 635 1577 1181 0.01 0.00 0.00 0.000
3:15am 179 9 9 40 80 72.3 64.8 29.24 64.6 634 1577 1179 0.01 0.00 0.00 0.000
3:16am 152 4 9 40 80 72.3 64.8 29.24 64.8 635 1577 1181 0.01 0.00 0.00 0.000
3:17am 193 4 9 40 80 72.3 64.8 29.24 64.8 635 1577 1181 0.01 0.00 0.00 0.000
3:18am 191 7 9 40 80 72.3 64.8 29.24 64.8 635 1577 1181 0.01 0.00 0.00 0.000
3:19am 202 4 9 40 80 72.3 64.8 29.24 64.8 635 1577 1181 0.01 0.00 0.00 0.000
3:20am 206 3 9 40 80 72.3 64.9 29.24 64.9 636 1577 1188 0.11 0.00 0.00 0.000
3:21am 229 2 5 40 80 72.3 64.8 29.24 64.8 636 1577 1182 0.01 0.00 0.00 0.000
3:22am 220 2 6 40 80 72.3 64.9 29.24 64.9 636 1577 1188 0.11 0.00 0.00 0.000
3:23am 152 4 8 40 80 72.3 64.9 29.24 64.9 636 1577 1188 0.11 0.00 0.00 0.000
3:24am 300 2 8 40 80 72.3 64.8 29.24 64.8 637 1577 1183 0.01 0.00 0.00 0.000
3:25am 214 3 8 40 80 72.3 64.9 29.24 64.9 636 1577 1188 0.10 0.00 0.00 0.000
3:26am 187 3 4 40 80 72.3 64.9 29.24 64.9 636 1577 1188 0.10 0.00 0.00 0.000
3:27am 182 5 5 40 81 72.3 64.9 29.24 64.9 636 1491 1188 0.10 0.00 0.00 0.000
3:28am 224 5 5 40 81 72.3 64.9 29.24 64.9 636 1491 1188 0.10 0.00 0.00 0.000
3:29am 236 3 7 40 81 72.3 64.9 29.24 64.9 637 1491 1189 0.10 0.00 0.00 0.000
3:30am 170 4 7 40 80 72.3 64.9 29.24 64.9 638 1577 1190 0.10 0.00 0.00 0.000
3:31am 185 3 9 40 80 72.3 64.9 29.24 64.9 637 1577 1189 0.09 0.00 0.00 0.000
3:32am 172 6 9 40 80 72.3 65.0 29.24 65.0 637 1578 1196 0.19 0.00 0.00 0.000
3:33am 168 3 9 40 80 72.3 64.9 29.24 64.9 639 1577 1192 0.09 0.00 0.00 0.000
3:34am 168 8 11 40 80 72.3 65.0 29.24 65.0 636 1578 1195 0.19 0.00 0.00 0.000
3:35am 168 2 11 40 80 72.3 64.9 29.24 64.9 636 1577 1188 0.08 0.00 0.00 0.000
3:36am 166 5 7 40 80 72.3 65.0 29.23 65.0 641 1578 1200 0.18 0.00 0.00 0.000
3:37am 191 11 11 40 80 72.3 65.0 29.23 64.5 643 1578 1203 0.18 0.00 0.00 0.000
3:38am 152 3 11 40 80 72.3 65.0 29.23 65.0 641 1578 1200 0.18 0.00 0.00 0.000
3:39am 184 2 11 40 80 72.3 65.0 29.23 65.0 641 1578 1200 0.17 0.00 0.00 0.000
3:40am 196 0 11 40 80 72.3 65.0 29.23 65.0 642 1578 1202 0.17 0.00 0.00 0.000
3:41am 196 4 4 40 81 72.3 65.0 29.23 65.0 641 1491 1200 0.17 0.00 0.00 0.000
3:42am 187 3 16 40 81 72.3 64.9 29.23 64.9 641 1491 1194 0.07 0.00 0.00 0.000
3:43am 202 2 16 40 81 72.3 65.0 29.23 65.0 643 1491 1203 0.16 0.00 0.00 0.000
3:44am 197 5 16 40 81 72.3 64.9 29.23 64.9 644 1491 1197 0.06 0.00 0.00 0.000
3:45am 179 4 16 40 81 72.3 65.0 29.23 65.0 642 1491 1202 0.16 0.00 0.00 0.000
3:46am 194 3 6 40 81 72.4 64.9 29.23 64.9 644 1491 1197 0.06 0.00 0.00 0.000
3:47am 226 3 6 40 81 72.4 65.0 29.23 65.0 645 1491 1205 0.16 0.00 0.00 0.000
3:48am 197 3 6 40 81 72.4 65.0 29.23 65.0 643 1491 1203 0.16 0.00 0.00 0.000
3:49am 189 8 9 40 81 72.4 65.0 29.23 65.0 642 1491 1202 0.15 0.00 0.00 0.000
3:50am 191 3 9 40 81 72.4 65.0 29.23 65.0 643 1491 1203 0.15 0.00 0.00 0.000
3:51am 191 3 5 40 81 72.4 65.0 29.23 65.0 645 1491 1205 0.15 0.00 0.00 0.000
3:52am 191 1 5 40 81 72.4 65.0 29.23 65.0 645 1491 1205 0.15 0.00 0.00 0.000
3:53am 168 1 5 40 81 72.4 65.0 29.23 65.0 645 1491 1205 0.14 0.00 0.00 0.000
3:54am 136 4 5 40 81 72.4 65.0 29.23 65.0 643 1491 1203 0.14 0.00 0.00 0.000
3:55am 227 2 7 42 81 72.4 64.9 29.23 64.9 645 1491 1198 0.04 0.00 0.00 0.000
3:56am 168 4 7 40 81 72.4 64.9 29.23 64.9 644 1491 1197 0.04 0.00 0.00 0.000
3:57am 165 2 7 40 81 72.4 65.0 29.23 65.0 646 1491 1207 0.14 0.00 0.00 0.000
3:58am 174 7 11 40 81 72.4 64.9 29.23 64.9 646 1491 1201 0.04 0.00 0.00 0.000
3:59am 183 3 11 40 81 72.4 64.9 29.23 64.9 646 1491 1201 0.04 0.00 0.00 0.000
4:00am 212 3 11 40 81 72.4 64.9 29.23 64.9 646 1491 1201 0.03 0.00 0.00 0.000
4:01am 218 5 6 40 81 72.4 64.9 29.23 64.9 646 1491 1201 0.03 0.00 0.00 0.000
4:02am 191 8 8 40 81 72.4 64.9 29.23 64.9 646 1491 1201 0.03 0.00 0.00 0.000
4:03am 171 4 12 40 81 72.4 64.9 29.23 64.9 646 1491 1201 0.03 0.00 0.00 0.000
4:04am 197 4 12 40 81 72.4 64.9 29.23 64.9 646 1491 1200 0.03 0.00 0.00 0.000
4:05am 213 4 12 40 81 72.4 64.9 29.23 64.9 646 1491 1200 0.03 0.00 0.00 0.000
4:06am 179 3 6 40 81 72.4 64.9 29.23 64.9 646 1491 1201 0.03 0.00 0.00 0.000
4:07am 247 2 6 40 81 72.6 64.9 29.23 64.9 647 1491 1202 0.03 0.00 0.00 0.000
4:08am 195 5 7 40 81 72.6 64.9 29.23 64.9 647 1491 1202 0.03 0.00 0.00 0.000
4:09am 327 3 7 40 81 72.6 64.8 29.23 64.8 647 1490 1195 -0.07 0.00 0.00 0.000
4:10am 197 4 7 40 81 72.6 64.8 29.23 64.8 647 1490 1195 -0.07 0.00 0.00 0.000
4:11am 226 4 7 40 81 72.6 64.8 29.23 64.8 647 1490 1195 -0.07 0.00 0.00 0.000
4:12am 175 3 7 40 81 72.6 64.7 29.23 64.7 647 1489 1189 -0.16 0.00 0.00 0.000
4:13am 197 3 9 40 81 72.6 64.7 29.23 64.7 647 1489 1189 -0.16 0.00 0.00 0.000
4:14am 188 3 10 40 81 72.6 64.7 29.23 64.7 647 1489 1189 -0.16 0.00 0.00 0.000
4:15am 244 6 10 40 82 72.6 64.6 29.23 64.6 647 1403 1183 -0.25 0.00 0.00 0.000
4:16am 213 5 9 40 82 72.6 64.6 29.23 64.6 647 1403 1183 -0.25 0.00 0.00 0.000
4:17am 185 4 9 40 82 72.6 64.5 29.23 64.5 647 1402 1176 -0.35 0.00 0.00 0.000
4:18am 189 4 9 40 82 72.6 64.5 29.23 64.5 647 1402 1176 -0.34 0.00 0.00 0.000
4:19am 121 3 10 40 82 72.6 64.5 29.23 64.5 646 1402 1175 -0.34 0.00 0.00 0.000
4:20am 145 7 10 40 82 72.6 64.5 29.23 64.5 646 1402 1175 -0.33 0.00 0.00 0.000
4:21am 179 11 11 40 82 72.6 64.4 29.23 63.7 646 1402 1168 -0.42 0.00 0.00 0.000
4:22am 176 3 11 40 82 72.6 64.3 29.23 64.3 647 1401 1163 -0.52 0.00 0.00 0.000
4:23am 265 3 11 40 82 72.6 64.3 29.23 64.3 647 1401 1163 -0.51 0.00 0.00 0.000
4:24am 160 3 11 40 83 72.6 64.2 29.23 64.2 647 1316 1157 -0.60 0.00 0.00 0.000
4:25am 183 3 11 40 83 72.6 64.2 29.23 64.2 647 1316 1157 -0.59 0.00 0.00 0.000
4:26am 210 7 10 40 83 72.6 64.2 29.23 64.2 647 1316 1157 -0.58 0.00 0.00 0.000
4:27am 223 3 10 40 83 72.6 64.1 29.23 64.1 647 1315 1150 -0.67 0.00 0.00 0.000
4:28am 195 4 10 40 83 72.6 64.1 29.23 64.1 647 1315 1150 -0.66 0.00 0.00 0.000
4:29am 169 4 10 40 83 72.6 64.1 29.23 64.1 646 1315 1148 -0.65 0.00 0.00 0.000
4:30am 166 5 10 40 83 72.6 64.1 29.23 64.1 646 1315 1148 -0.63 0.00 0.00 0.000
4:31am 165 0 5 40 83 72.6 64.0 29.23 64.0 644 1315 1139 -0.72 0.00 0.00 0.000
4:32am 241 7 7 40 83 72.6 64.0 29.23 64.0 643 1315 1138 -0.71 0.00 0.00 0.000
4:33am 179 1 7 40 83 72.6 63.9 29.23 63.9 643 1314 1132 -0.80 0.00 0.00 0.000
4:34am 205 6 9 40 83 72.6 63.9 29.23 63.9 644 1314 1133 -0.78 0.00 0.00 0.000
4:35am 189 5 9 40 83 72.6 63.9 29.23 63.9 642 1314 1130 -0.77 0.00 0.00 0.000
4:36am 191 2 6 40 84 72.6 63.8 29.23 63.8 642 1230 1124 -0.86 0.00 0.00 0.000
4:37am 191 1 6 40 84 72.6 63.8 29.23 63.8 642 1230 1124 -0.84 0.00 0.00 0.000
4:38am 185 6 8 40 84 72.6 63.8 29.23 63.8 642 1230 1124 -0.83 0.00 0.00 0.000
4:39am 184 5 8 40 84 72.6 63.8 29.23 63.8 642 1230 1124 -0.82 0.00 0.00 0.000
4:40am 213 2 8 40 84 72.8 63.7 29.23 63.7 642 1230 1117 -0.90 0.00 0.00 0.000
4:41am 177 5 5 40 84 72.8 63.7 29.23 63.7 641 1230 1116 -0.89 0.00 0.00 0.000
4:42am 288 5 5 40 84 72.8 63.6 29.23 63.6 641 1229 1110 -0.97 0.00 0.00 0.000
4:43am 150 4 14 40 84 72.8 63.6 29.23 63.6 641 1229 1110 -0.96 0.00 0.00 0.000
4:44am 172 4 14 40 84 72.8 63.6 29.23 63.6 640 1229 1109 -0.94 0.00 0.00 0.000
4:45am 160 6 14 40 84 72.8 63.6 29.24 63.6 639 1229 1108 -0.92 0.00 0.00 0.000
4:46am 224 3 6 40 84 72.8 63.5 29.24 63.5 639 1229 1101 -1.01 0.00 0.00 0.000
4:47am 189 1 6 40 84 72.8 63.5 29.23 63.5 640 1229 1102 -0.99 0.00 0.00 0.000
4:48am 189 1 6 40 84 72.8 63.5 29.23 63.5 641 1229 1103 -0.97 0.00 0.00 0.000
4:49am 107 7 7 40 84 72.8 63.5 29.24 63.5 639 1229 1101 -0.96 0.00 0.00 0.000
4:50am 166 6 9 40 84 72.8 63.5 29.23 63.5 641 1229 1103 -0.94 0.00 0.00 0.000
4:51am 197 6 6 40 84 72.8 63.4 29.23 63.4 641 1228 1097 -1.03 0.00 0.00 0.000
4:52am 176 3 6 40 84 72.8 63.4 29.23 63.4 643 1228 1099 -1.01 0.00 0.00 0.000
4:53am 208 1 6 40 84 72.8 63.4 29.23 63.4 642 1228 1098 -0.99 0.00 0.00 0.000
4:54am 200 1 6 40 84 72.8 63.4 29.23 63.4 642 1228 1098 -0.98 0.00 0.00 0.000
4:55am 199 2 6 40 84 72.8 63.3 29.23 63.3 644 1228 1094 -1.06 0.00 0.00 0.000
4:56am 202 5 5 40 84 72.8 63.3 29.23 63.3 644 1228 1094 -1.04 0.00 0.00 0.000
4:57am 211 4 6 40 85 72.8 63.3 29.23 63.3 642 1145 1092 -1.02 0.00 0.00 0.000
4:58am 225 1 6 40 85 72.8 63.3 29.23 63.3 644 1145 1094 -1.01 0.00 0.00 0.000
4:59am 186 6 8 40 85 72.8 63.2 29.23 63.2 643 1144 1086 -1.09 0.00 0.00 0.000
5:00am 196 4 9 40 85 72.8 63.2 29.23 63.2 644 1144 1087 -1.07 0.00 0.00 0.000
5:01am 166 3 8 40 85 72.8 63.2 29.23 63.2 643 1144 1086 -1.05 0.00 0.00 0.000
5:02am 203 3 8 40 85 72.8 63.2 29.23 63.2 643 1144 1086 -1.04 0.00 0.00 0.000
5:03am 188 4 8 40 85 72.8 63.2 29.23 63.2 645 1144 1088 -1.02 0.00 0.00 0.000
5:04am 238 3 8 40 85 72.8 63.1 29.23 63.1 643 1144 1080 -1.10 0.00 0.00 0.000
5:05am 214 6 8 40 85 72.8 63.1 29.23 63.1 643 1144 1080 -1.08 0.00 0.00 0.000
5:06am 179 0 11 40 85 73.0 63.1 29.23 63.1 646 1144 1083 -1.07 0.00 0.00 0.000
5:07am 179 1 11 40 85 73.0 63.1 29.23 63.1 646 1144 1084 -1.05 0.00 0.00 0.000
5:08am 168 5 11 40 85 73.0 63.1 29.23 63.1 646 1144 1084 -1.03 0.00 0.00 0.000
5:09am 205 2 11 40 85 73.0 63.1 29.23 63.1 646 1144 1084 -1.01 0.00 0.00 0.000
5:10am 241 3 11 40 85 73.0 63.1 29.23 63.1 647 1144 1085 -1.00 0.00 0.00 0.000
5:11am 184 5 5 40 85 73.0 63.1 29.23 63.1 646 1144 1084 -0.98 0.00 0.00 0.000
5:12am 189 7 12 40 85 73.0 63.0 29.23 62.9 646 1144 1078 -1.06 0.00 0.00 0.000
5:13am 187 6 12 40 85 73.0 63.1 29.23 63.1 647 1144 1085 -0.95 0.00 0.00 0.000
5:14am 178 3 12 40 85 73.0 63.0 29.23 63.0 647 1144 1079 -1.03 0.00 0.00 0.000
5:15am 166 5 12 40 85 73.0 63.1 29.23 63.1 647 1144 1085 -0.91 0.00 0.00 0.000
5:16am 170 3 6 40 85 73.0 63.1 29.23 63.1 647 1144 1085 -0.90 0.00 0.00 0.000
5:17am 174 6 6 40 85 73.0 63.0 29.23 63.0 647 1144 1079 -0.98 0.00 0.00 0.000
5:18am 288 5 8 40 85 73.0 63.1 29.23 63.1 648 1144 1087 -0.87 0.00 0.00 0.000
5:19am 243 3 8 40 85 73.0 63.0 29.23 63.0 648 1144 1080 -0.95 0.00 0.00 0.000
5:20am 195 4 8 40 85 73.0 63.0 29.23 63.0 648 1144 1080 -0.94 0.00 0.00 0.000
5:21am 162 5 10 40 85 73.0 63.0 29.22 63.0 649 1144 1081 -0.92 0.00 0.00 0.000
5:22am 176 7 14 40 85 73.0 63.0 29.22 62.9 649 1144 1081 -0.91 0.00 0.00 0.000
5:23am 193 7 14 40 85 73.0 63.0 29.22 62.9 649 1144 1081 -0.89 0.00 0.00 0.000
5:24am 189 2 14 40 85 73.0 63.0 29.22 63.0 650 1144 1082 -0.88 0.00 0.00 0.000
5:25am 204 8 14 40 85 73.0 63.0 29.22 62.6 650 1144 1082 -0.86 0.00 0.00 0.000
5:26am 144 5 10 40 85 73.0 63.0 29.22 63.0 651 1144 1083 -0.85 0.00 0.00 0.000
5:27am 194 3 10 40 85 73.0 63.0 29.22 63.0 650 1144 1082 -0.83 0.00 0.00 0.000
5:28am 230 6 10 40 85 73.0 63.0 29.22 63.0 650 1144 1082 -0.82 0.00 0.00 0.000
5:29am 177 6 10 40 85 73.0 63.0 29.23 63.0 648 1144 1080 -0.81 0.00 0.00 0.000
5:30am 316 7 10 40 85 73.0 63.0 29.23 62.9 648 1144 1080 -0.79 0.00 0.00 0.000
5:31am 203 5 10 40 85 73.0 63.0 29.23 63.0 648 1144 1080 -0.78 0.00 0.00 0.000
5:32am 200 2 10 40 85 73.0 62.9 29.23 62.9 648 1143 1074 -0.87 0.00 0.00 0.000
5:33am 173 4 10 40 85 73.1 62.9 29.23 62.9 648 1143 1074 -0.85 0.00 0.00 0.000
5:34am 199 7 10 40 85 73.1 62.9 29.23 62.7 648 1143 1074 -0.84 0.00 0.00 0.000
5:35am 195 2 10 40 85 73.1 62.9 29.23 62.9 648 1143 1074 -0.83 0.00 0.00 0.000
5:36am 187 3 8 40 85 73.1 62.9 29.23 62.9 648 1143 1074 -0.81 0.00 0.00 0.000
5:37am 184 5 8 40 85 73.0 62.9 29.22 62.9 649 1143 1075 -0.80 0.00 0.00 0.000
5:38am 190 4 8 40 85 73.0 62.9 29.22 62.9 649 1143 1075 -0.79 0.00 0.00 0.000
5:39am 212 2 8 40 85 73.0 62.9 29.22 62.9 649 1143 1075 -0.77 0.00 0.00 0.000
5:40am 158 9 9 40 85 73.0 62.9 29.22 62.2 649 1143 1075 -0.76 0.00 0.00 0.000
5:41am 216 3 10 40 85 73.0 62.8 29.22 62.8 649 1143 1068 -0.85 0.00 0.00 0.000
5:42am 216 2 10 40 85 73.0 62.8 29.22 62.8 649 1143 1068 -0.83 0.00 0.00 0.000
5:43am 216 2 10 40 85 73.0 62.7 29.23 62.7 648 1142 1061 -0.92 0.00 0.00 0.000
5:44am 172 1 10 40 85 73.0 62.7 29.22 62.7 649 1142 1062 -0.90 0.00 0.00 0.000
5:45am 166 5 10 40 85 73.0 62.7 29.23 62.7 648 1142 1061 -0.89 0.00 0.00 0.000
5:46am 170 5 10 40 86 72.8 62.7 29.23 62.7 648 1061 1061 -0.87 0.00 0.00 0.000
5:47am 288 5 10 40 86 72.8 62.6 29.23 62.6 648 1060 1054 -0.96 0.00 0.00 0.000
5:48am 174 2 10 40 86 72.8 62.6 29.23 62.6 648 1060 1054 -0.94 0.00 0.00 0.000
5:49am 256 5 10 40 86 72.8 62.6 29.23 62.6 648 1060 1054 -0.93 0.00 0.00 0.000
5:50am 247 2 10 40 86 72.8 62.6 29.23 62.6 648 1060 1054 -0.91 0.00 0.00 0.000
5:51am 190 5 5 40 86 72.8 62.5 29.23 62.5 648 1060 1048 -1.00 0.00 0.00 0.000
5:52am 248 4 5 40 86 72.8 62.5 29.23 62.5 648 1060 1048 -0.98 0.00 0.00 0.000
5:53am 221 3 5 40 86 72.8 62.5 29.23 62.5 648 1060 1048 -0.96 0.00 0.00 0.000
5:54am 223 2 5 40 86 72.8 62.5 29.23 62.5 648 1060 1048 -0.95 0.00 0.00 0.000
5:55am 212 2 5 40 86 72.8 62.5 29.23 62.5 647 1060 1046 -0.93 0.00 0.00 0.000
5:56am 237 3 3 40 86 72.8 62.4 29.23 62.4 647 1059 1040 -1.02 0.00 0.00 0.000
5:57am 120 0 8 40 86 72.8 62.4 29.23 62.4 647 1059 1040 -1.00 0.00 0.00 0.000
5:58am 185 8 8 40 86 72.8 62.4 29.23 61.9 647 1059 1040 -0.98 0.00 0.00 0.000
5:59am 172 4 8 40 86 72.8 62.4 29.23 62.4 647 1059 1040 -0.97 0.00 0.00 0.000
6:00am 226 2 8 40 86 72.8 62.4 29.23 62.4 647 1059 1040 -0.95 0.00 0.00 0.000
6:01am 254 7 12 40 86 72.8 62.4 29.23 62.1 646 1059 1039 -0.93 0.00 0.00 0.000
6:02am 286 0 12 40 86 72.8 62.4 29.23 62.4 647 1059 1040 -0.92 0.00 0.00 0.000
6:03am 282 0 12 40 86 72.8 62.4 29.23 62.4 647 1059 1040 -0.90 0.00 0.00 0.000
6:04am 212 2 12 40 86 72.8 62.4 29.23 62.4 648 1059 1041 -0.89 0.00 0.00 0.000
6:05am 179 3 12 40 86 72.8 62.4 29.23 62.4 648 1059 1041 -0.88 0.00 0.00 0.000
6:06am 172 8 8 40 86 72.8 62.4 29.23 61.9 647 1059 1040 -0.86 0.00 0.00 0.000
6:07am 191 6 8 40 86 72.8 62.4 29.23 62.4 647 1059 1040 -0.85 0.00 0.00 0.000
6:08am 184 5 10 40 86 73.0 62.4 29.23 62.4 647 1059 1040 -0.83 0.00 0.00 0.000
6:09am 185 3 10 40 86 73.0 62.4 29.23 62.4 647 1059 1040 -0.82 0.00 0.00 0.000
6:10am 146 3 10 40 86 73.0 62.4 29.23 62.4 647 1059 1040 -0.81 0.00 0.00 0.000
6:11am 188 2 3 40 86 73.0 62.4 29.23 62.4 647 1059 1040 -0.79 0.00 0.00 0.000
6:12am 159 3 6 40 86 73.0 62.4 29.23 62.4 647 1059 1040 -0.78 0.00 0.00 0.000
6:13am 255 6 7 40 86 73.0 62.4 29.23 62.4 646 1059 1039 -0.77 0.00 0.00 0.000
6:14am 178 5 7 40 86 73.0 62.3 29.23 62.3 647 1059 1033 -0.85 0.00 0.00 0.000
6:15am 202 4 7 40 86 73.0 62.4 29.23 62.4 647 1059 1040 -0.74 0.00 0.00 0.000
6:16am 158 2 6 40 86 73.0 62.3 29.23 62.3 647 1059 1033 -0.83 0.00 0.00 0.000
6:17am 230 5 6 40 86 73.0 62.4 29.23 62.4 647 1059 1040 -0.72 0.00 0.00 0.000
6:18am 193 1 8 40 86 73.0 62.4 29.23 62.4 647 1059 1040 -0.70 0.00 0.00 0.000
6:19am 179 4 8 40 86 73.0 62.4 29.23 62.4 648 1059 1041 -0.69 0.00 0.00 0.000
6:20am 280 4 10 40 86 73.0 62.4 29.23 62.4 647 1059 1040 -0.68 0.00 0.00 0.000
6:21am 168 2 4 40 86 73.0 62.3 29.23 62.3 648 1059 1035 -0.77 0.00 0.00 0.000
6:22am 243 4 9 40 86 73.0 62.4 29.23 62.4 648 1059 1041 -0.66 0.00 0.00 0.000
6:23am 300 2 9 40 86 73.0 62.4 29.23 62.4 648 1059 1041 -0.64 0.00 0.00 0.000
6:24am 180 5 9 40 86 73.0 62.3 29.23 62.3 648 1059 1035 -0.73 0.00 0.00 0.000
6:25am 195 2 9 40 86 73.0 62.3 29.23 62.3 647 1059 1033 -0.72 0.00 0.00 0.000
6:26am 224 8 8 40 86 73.0 62.3 29.23 61.7 647 1059 1033 -0.71 0.00 0.00 0.000
6:27am 166 6 8 40 86 73.0 62.3 29.23 62.3 647 1059 1033 -0.70 0.00 0.00 0.000
6:28am 211 2 8 40 86 73.0 62.3 29.23 62.3 648 1059 1035 -0.69 0.00 0.00 0.000
6:29am 202 4 8 41 86 73.0 62.3 29.23 62.3 648 1059 1035 -0.67 0.00 0.00 0.000
6:30am 205 3 8 40 86 73.0 62.3 29.23 62.3 648 1059 1035 -0.66 0.00 0.00 0.000
6:31am 163 5 5 41 86 73.0 62.3 29.23 62.3 648 1059 1035 -0.65 0.00 0.00 0.000
6:32am 232 2 5 40 86 73.0 62.3 29.23 62.3 648 1059 1035 -0.64 0.00 0.00 0.000
6:33am 193 5 6 40 86 73.0 62.3 29.23 62.3 648 1059 1035 -0.63 0.00 0.00 0.000
6:34am 264 2 6 40 86 73.0 62.3 29.23 62.3 647 1059 1033 -0.62 0.00 0.00 0.000
6:35am 174 3 6 40 87 73.0 62.3 29.23 62.3 647 978 1033 -0.61 0.00 0.00 0.000
6:36am 210 6 6 40 87 73.0 62.3 29.23 62.3 647 978 1033 -0.60 0.00 0.00 0.000
6:37am 169 1 7 40 87 73.0 62.3 29.23 62.3 647 978 1033 -0.59 0.00 0.00 0.000
6:38am 162 4 8 40 87 73.0 62.3 29.23 62.3 647 978 1033 -0.58 0.00 0.00 0.000
6:39am 202 2 8 40 87 73.0 62.3 29.23 62.3 648 978 1035 -0.57 0.00 0.00 0.000
6:40am 208 2 8 41 87 73.0 62.4 29.23 62.4 647 979 1040 -0.46 0.00 0.00 0.000
6:41am 247 1 3 40 87 73.0 62.4 29.23 62.4 647 979 1040 -0.45 0.00 0.00 0.000
6:42am 213 0 3 40 87 73.0 62.3 29.23 62.3 647 978 1033 -0.55 0.00 0.00 0.000
6:43am 327 2 10 40 87 73.0 62.4 29.23 62.4 647 979 1040 -0.44 0.00 0.00 0.000
6:44am 164 1 10 40 87 73.0 62.4 29.23 62.4 647 979 1040 -0.43 0.00 0.00 0.000
6:45am 164 1 10 40 87 73.0 62.4 29.23 62.4 647 979 1040 -0.42 0.00 0.00 0.000
6:46am 197 7 8 40 87 73.1 62.4 29.23 62.1 646 979 1039 -0.42 0.00 0.00 0.000
6:47am 173 3 8 40 87 73.1 62.4 29.23 62.4 647 979 1040 -0.41 0.00 0.00 0.000
6:48am 154 3 9 40 87 73.1 62.4 29.23 62.4 647 979 1040 -0.40 0.00 0.00 0.000
6:49am 157 7 9 40 86 73.1 62.5 29.23 62.3 647 1060 1046 -0.30 0.00 0.00 0.000
6:50am 226 8 10 40 86 73.1 62.5 29.23 62.0 647 1060 1046 -0.29 0.00 0.00 0.000
6:51am 172 5 8 40 86 73.1 62.5 29.23 62.5 647 1060 1046 -0.29 0.00 0.00 0.000
6:52am 211 1 8 40 86 73.1 62.5 29.23 62.5 647 1060 1046 -0.28 0.00 0.00 0.000
6:53am 220 0 8 40 86 73.1 62.6 29.23 62.6 647 1060 1053 -0.18 0.00 0.00 0.000
6:54am 203 3 8 40 86 73.1 62.6 29.23 62.6 647 1060 1053 -0.17 0.00 0.00 0.000
6:55am 213 5 8 40 86 73.1 62.6 29.23 62.6 647 1060 1053 -0.17 0.00 0.00 0.000
6:56am 231 3 9 40 86 73.1 62.6 29.23 62.6 647 1060 1053 -0.17 0.00 0.00 0.000
6:57am 201 6 9 40 87 73.1 62.6 29.23 62.6 646 979 1051 -0.17 0.00 0.00 0.000
6:58am 202 4 9 40 86 73.1 62.6 29.23 62.6 646 1060 1052 -0.16 0.00 0.00 0.000
6:59am 190 9 11 40 86 73.1 62.7 29.23 62.0 646 1061 1057 -0.06 0.00 0.00 0.000
7:00am 202 5 11 40 86 73.1 62.7 29.23 62.7 646 1061 1057 -0.06 0.00 0.00 0.000
7:01am 344 1 7 41 86 73.1 62.7 29.23 62.7 646 1061 1057 -0.06 0.00 0.00 0.000
7:02am 190 3 8 40 86 73.1 62.7 29.23 62.7 646 1061 1057 -0.06 0.00 0.00 0.000
7:03am 194 1 8 41 86 73.1 62.7 29.23 62.7 646 1061 1057 -0.06 0.00 0.00 0.000
7:04am 251 4 8 40 86 73.1 62.7 29.23 62.7 643 1061 1054 -0.06 0.00 0.00 0.000
7:05am 232 3 8 40 86 73.1 62.8 29.23 62.8 644 1061 1061 0.04 0.00 0.00 0.000
7:06am 254 5 5 40 86 73.1 62.8 29.23 62.8 645 1061 1063 0.04 0.00 0.00 0.000
7:07am 233 1 6 40 86 73.1 62.8 29.23 62.8 643 1061 1060 0.04 0.00 0.00 0.000
7:08am 218 3 7 40 86 73.0 62.8 29.23 62.8 646 1061 1064 0.04 0.00 0.00 0.000
7:09am 147 4 7 41 86 73.0 62.8 29.23 62.8 645 1061 1063 0.04 0.00 0.00 0.000
7:10am 195 2 7 40 86 73.0 62.8 29.23 62.8 642 1061 1059 0.04 0.00 0.00 0.000
7:11am 241 4 4 40 86 73.0 62.8 29.23 62.8 642 1061 1059 0.04 0.00 0.00 0.000
7:12am 225 4 4 40 86 73.0 62.8 29.23 62.8 641 1061 1058 0.04 0.00 0.00 0.000
7:13am 179 3 4 40 86 73.0 62.8 29.23 62.8 642 1061 1059 0.04 0.00 0.00 0.000
7:14am 171 3 4 41 86 73.0 62.9 29.23 62.9 642 1061 1066 0.14 0.00 0.00 0.000
7:15am 252 4 8 40 86 73.0 62.9 29.24 62.9 639 1061 1062 0.13 0.00 0.00 0.000
7:16am 180 2 5 40 86 73.0 62.8 29.24 62.8 639 1061 1056 0.03 0.00 0.00 0.000
7:17am 186 3 5 40 86 73.0 62.8 29.24 62.8 636 1061 1052 0.03 0.00 0.00 0.000
7:18am 229 4 6 40 86 73.0 62.9 29.24 62.9 636 1061 1059 0.13 0.00 0.00 0.000
7:19am 243 6 6 40 86 73.0 62.9 29.24 62.9 636 1061 1059 0.13 0.00 0.00 0.000
7:20am 210 3 6 40 86 73.0 62.9 29.24 62.9 637 1061 1060 0.13 0.00 0.00 0.000
7:21am 207 2 7 40 86 73.0 62.9 29.24 62.9 637 1061 1060 0.12 0.00 0.00 0.000
7:22am 185 1 7 40 86 73.0 62.9 29.24 62.9 638 1061 1061 0.12 0.00 0.00 0.000
7:23am 180 3 7 40 86 73.0 62.9 29.24 62.9 638 1061 1061 0.12 0.00 0.00 0.000
7:24am 180 2 7 40 86 73.0 62.9 29.24 62.9 639 1061 1062 0.12 0.00 0.00 0.000
7:25am 231 5 7 40 86 73.0 62.9 29.24 62.9 636 1061 1059 0.12 0.00 0.00 0.000
7:26am 177 5 6 40 86 73.0 62.9 29.24 62.9 638 1061 1061 0.11 0.00 0.00 0.000
7:27am 176 3 6 40 86 73.0 63.0 29.24 63.0 638 1062 1068 0.21 0.00 0.00 0.000
7:28am 222 1 6 40 86 73.0 63.0 29.24 63.0 638 1062 1068 0.21 0.00 0.00 0.000
7:29am 152 6 11 40 86 73.0 63.0 29.24 63.0 636 1062 1065 0.21 0.00 0.00 0.000
7:30am 232 2 11 40 86 73.0 62.9 29.24 62.9 636 1061 1059 0.10 0.00 0.00 0.000
7:31am 193 0 3 41 86 73.0 63.0 29.24 63.0 636 1062 1065 0.20 0.00 0.00 0.000
7:32am 188 0 3 40 86 73.0 63.0 29.24 63.0 635 1062 1064 0.20 0.00 0.00 0.000
7:33am 210 0 3 40 86 73.0 63.0 29.24 63.0 635 1062 1064 0.20 0.00 0.00 0.000
7:34am 204 3 3 40 86 73.0 63.0 29.24 63.0 635 1062 1064 0.19 0.00 0.00 0.000
7:35am 211 3 4 40 86 73.0 63.0 29.24 63.0 635 1062 1064 0.19 0.00 0.00 0.000
7:36am 262 3 7 40 86 73.0 63.0 29.24 63.0 637 1062 1066 0.19 0.00 0.00 0.000
7:37am 222 4 7 40 86 73.0 63.0 29.24 63.0 637 1062 1066 0.18 0.00 0.00 0.000
7:38am 186 6 8 41 86 73.0 63.0 29.24 63.0 637 1062 1066 0.18 0.00 0.00 0.000
7:39am 222 2 8 40 86 73.0 63.1 29.24 63.1 637 1062 1073 0.28 0.00 0.00 0.000
7:40am 219 2 8 40 86 73.0 63.1 29.24 63.1 636 1062 1072 0.27 0.00 0.00 0.000
7:41am 218 9 9 40 86 73.0 63.2 29.24 62.6 635 1063 1077 0.37 0.00 0.00 0.000
7:42am 229 3 9 40 86 73.0 63.2 29.24 63.2 634 1063 1076 0.36 0.00 0.00 0.000
7:43am 166 6 10 40 86 73.0 63.2 29.24 63.2 634 1063 1076 0.35 0.00 0.00 0.000
7:44am 172 4 12 40 86 73.0 63.2 29.24 63.2 634 1063 1076 0.35 0.00 0.00 0.000
7:45am 176 1 12 40 86 73.0 63.2 29.24 63.2 635 1063 1077 0.34 0.00 0.00 0.000
7:46am 243 4 4 41 86 73.0 63.2 29.24 63.2 635 1063 1077 0.34 0.00 0.00 0.000
7:47am 199 6 7 41 86 73.0 63.3 29.24 63.3 635 1063 1084 0.43 0.00 0.00 0.000
7:48am 170 3 7 40 86 73.0 63.3 29.24 63.3 637 1063 1086 0.42 0.00 0.00 0.000
7:49am 181 6 7 40 86 73.1 63.4 29.24 63.4 638 1064 1093 0.51 0.00 0.00 0.000
7:50am 212 4 7 40 86 73.1 63.3 29.24 63.3 636 1063 1085 0.41 0.00 0.00 0.000
7:51am 265 2 5 40 86 73.1 63.4 29.24 63.4 634 1064 1089 0.50 0.00 0.00 0.000
7:52am 208 3 5 40 86 73.1 63.4 29.24 63.4 634 1064 1089 0.49 0.00 0.00 0.000
7:53am 232 2 5 40 86 73.1 63.3 29.24 63.3 631 1063 1078 0.39 0.00 0.00 0.000
7:54am 193 4 5 40 86 73.1 63.4 29.24 63.4 631 1064 1084 0.48 0.00 0.00 0.000
7:55am 161 3 6 40 86 73.1 63.4 29.25 63.4 627 1064 1080 0.47 0.00 0.00 0.000
7:56am 171 4 5 40 86 73.1 63.4 29.25 63.4 627 1064 1080 0.46 0.00 0.00 0.000
7:57am 212 3 5 40 86 73.1 63.4 29.25 63.4 628 1064 1081 0.45 0.00 0.00 0.000
7:58am 224 6 6 40 86 73.1 63.3 29.25 63.3 627 1063 1073 0.35 0.00 0.00 0.000
7:59am 185 4 6 40 86 73.1 63.3 29.25 63.3 626 1063 1072 0.34 0.00 0.00 0.000
8:00am 158 4 8 40 86 73.1 63.3 29.25 63.3 627 1063 1073 0.33 0.00 0.00 0.000
8:01am 176 3 6 41 86 73.1 63.3 29.25 63.3 628 1063 1074 0.33 0.00 0.00 0.000
8:02am 239 3 6 40 86 73.1 63.3 29.25 63.3 627 1063 1073 0.32 0.00 0.00 0.000
8:03am 272 6 9 40 86 73.1 63.3 29.25 63.3 623 1063 1069 0.32 0.00 0.00 0.000
8:04am 159 4 9 40 86 73.1 63.2 29.25 63.2 622 1063 1061 0.21 0.00 0.00 0.000
8:05am 197 5 9 42 86 73.1 63.3 29.25 63.3 626 1063 1072 0.31 0.00 0.00 0.000
8:06am 264 3 5 40 86 73.1 63.2 29.25 63.2 625 1063 1065 0.21 0.00 0.00 0.000
8:07am 168 7 7 40 86 73.1 63.2 29.25 63.1 624 1063 1063 0.20 0.00 0.00 0.000
8:08am 158 5 9 40 86 73.1 63.2 29.25 63.2 626 1063 1066 0.20 0.00 0.00 0.000
8:09am 203 3 9 40 86 73.1 63.2 29.25 63.2 626 1063 1066 0.20 0.00 0.00 0.000
8:10am 206 4 9 40 86 73.1 63.2 29.25 63.2 625 1063 1065 0.19 0.00 0.00 0.000
8:11am 232 1 6 40 86 73.1 63.2 29.25 63.2 626 1063 1066 0.19 0.00 0.00 0.000
8:12am 215 5 6 40 86 73.1 63.2 29.25 63.2 625 1063 1065 0.19 0.00 0.00 0.000
8:13am 214 4 9 40 86 73.1 63.2 29.25 63.2 627 1063 1067 0.18 0.00 0.00 0.000
8:14am 196 2 9 40 86 73.1 63.2 29.25 63.2 625 1063 1065 0.18 0.00 0.00 0.000
8:15am 187 3 9 40 86 73.1 63.2 29.25 63.2 627 1063 1067 0.18 0.00 0.00 0.000
8:16am 181 6 6 40 86 73.1 63.2 29.25 63.2 625 1063 1065 0.17 0.00 0.00 0.000
8:17am 174 6 11 40 86 73.1 63.2 29.25 63.2 623 1063 1062 0.17 0.00 0.00 0.000
8:18am 253 2 12 40 86 73.1 63.1 29.25 63.1 628 1062 1061 0.07 0.00 0.00 0.000
8:19am 253 2 12 41 86 73.1 63.1 29.25 63.1 627 1062 1060 0.07 0.00 0.00 0.000
8:20am 159 4 12 41 86 73.1 63.1 29.25 63.1 626 1062 1059 0.07 0.00 0.00 0.000
8:21am 168 2 4 40 86 73.1 63.1 29.25 63.1 626 1062 1059 0.07 0.00 0.00 0.000
8:22am 168 0 4 40 87 73.1 63.1 29.25 63.1 625 982 1058 0.06 0.00 0.00 0.000
8:23am 253 3 4 40 87 73.1 63.1 29.25 63.1 624 982 1057 0.06 0.00 0.00 0.000
8:24am 158 3 7 40 87 73.1 63.1 29.25 63.1 625 982 1058 0.06 0.00 0.00 0.000
8:25am 283 2 7 40 87 73.1 63.1 29.25 63.1 627 982 1060 0.06 0.00 0.00 0.000
8:26am 158 3 3 41 87 73.3 63.0 29.25 63.0 625 981 1052 -0.04 0.00 0.00 0.000
8:27am 237 6 6 41 87 73.3 63.0 29.25 63.0 625 981 1052 -0.04 0.00 0.00 0.000
8:28am 202 2 6 40 87 73.3 63.0 29.25 63.0 625 981 1052 -0.04 0.00 0.00 0.000
8:29am 162 6 7 41 88 73.3 62.9 29.25 62.9 626 901 1046 -0.14 0.00 0.00 0.000
8:30am 162 4 7 41 88 73.3 62.8 29.25 62.8 628 900 1042 -0.23 0.00 0.00 0.000
8:31am 195 6 6 41 88 73.3 62.8 29.24 62.8 631 900 1045 -0.23 0.00 0.00 0.000
8:32am 223 2 6 41 88 73.3 62.7 29.24 62.7 631 900 1039 -0.32 0.00 0.00 0.000
8:33am 147 3 6 41 88 73.3 62.7 29.24 62.7 631 900 1039 -0.32 0.00 0.00 0.000
8:34am 143 1 6 41 88 73.3 62.7 29.24 62.7 631 900 1039 -0.31 0.00 0.00 0.000
8:35am 143 2 6 40 88 73.3 62.6 29.24 62.6 631 900 1032 -0.41 0.00 0.00 0.000
8:36am 205 0 6 40 88 73.3 62.6 29.24 62.6 632 900 1034 -0.40 0.00 0.00 0.000
8:37am 202 1 6 41 89 73.3 62.5 29.24 62.5 632 820 1027 -0.49 0.00 0.00 0.000
8:38am 231 3 6 41 89 73.3 62.5 29.24 62.5 632 820 1027 -0.49 0.00 0.00 0.000
8:39am 189 4 6 41 89 73.3 62.5 29.24 62.5 633 820 1028 -0.48 0.00 0.00 0.000
8:40am 177 3 6 40 89 73.3 62.5 29.24 62.5 633 820 1028 -0.47 0.00 0.00 0.000
8:41am 177 2 3 41 89 73.3 62.4 29.24 62.4 634 820 1023 -0.56 0.00 0.00 0.000
8:42am 277 4 9 41 89 73.3 62.4 29.24 62.4 634 820 1023 -0.55 0.00 0.00 0.000
8:43am 238 3 9 40 89 73.3 62.4 29.24 62.4 634 820 1023 -0.54 0.00 0.00 0.000
8:44am 162 1 9 40 89 73.3 62.4 29.24 62.4 634 820 1023 -0.54 0.00 0.00 0.000
8:45am 154 6 9 41 89 73.3 62.4 29.24 62.4 634 820 1024 -0.53 0.00 0.00 0.000
8:46am 234 2 6 41 89 73.3 62.3 29.24 62.3 634 820 1017 -0.62 0.00 0.00 0.000
8:47am 173 2 6 41 90 73.3 62.3 29.24 62.3 634 741 1017 -0.61 0.00 0.00 0.000
8:48am 251 1 6 41 90 73.5 62.3 29.24 62.3 634 741 1017 -0.60 0.00 0.00 0.000
8:49am 202 2 6 41 90 73.3 62.3 29.24 62.3 635 741 1019 -0.59 0.00 0.00 0.000
8:50am 84 4 6 41 90 73.5 62.3 29.24 62.3 634 741 1017 -0.58 0.00 0.00 0.000
8:51am 174 2 6 40 90 73.5 62.3 29.24 62.3 635 741 1019 -0.57 0.00 0.00 0.000
8:52am 189 4 6 41 90 73.5 62.3 29.24 62.3 635 741 1019 -0.56 0.00 0.00 0.000
8:53am 154 3 6 41 90 73.5 62.3 29.24 62.3 635 741 1019 -0.55 0.00 0.00 0.000
8:54am 199 5 6 41 91 73.5 62.2 29.24 62.2 635 664 1012 -0.64 0.00 0.00 0.000
8:55am 195 2 7 41 90 73.5 62.3 29.24 62.3 635 741 1019 -0.53 0.00 0.00 0.000
8:56am 225 4 4 40 91 73.5 62.2 29.24 62.2 635 664 1012 -0.62 0.00 0.00 0.000
8:57am 195 4 4 40 91 73.5 62.2 29.24 62.2 635 664 1012 -0.61 0.00 0.00 0.000
8:58am 196 2 4 41 91 73.5 62.2 29.24 62.2 636 664 1013 -0.60 0.00 0.00 0.000
8:59am 196 1 4 41 91 73.5 62.2 29.24 62.2 635 664 1012 -0.59 0.00 0.00 0.000
9:00am 196 1 4 41 91 73.5 62.2 29.24 62.2 635 664 1012 -0.58 0.00 0.00 0.000
9:01am 195 2 4 41 91 73.5 62.2 29.24 62.2 635 664 1012 -0.57 0.00 0.00 0.000
9:02am 181 4 5 41 91 73.5 62.3 29.24 62.3 635 664 1019 -0.46 0.00 0.00 0.000
9:03am 181 2 5 41 91 73.5 62.2 29.24 62.2 635 664 1012 -0.55 0.00 0.00 0.000
9:04am 185 5 6 41 91 73.5 62.2 29.24 62.2 636 664 1013 -0.54 0.00 0.00 0.000
9:05am 140 2 6 41 91 73.5 62.2 29.24 62.2 635 664 1012 -0.53 0.00 0.00 0.000
9:06am 155 1 5 41 91 73.5 62.3 29.24 62.3 635 664 1019 -0.43 0.00 0.00 0.000
9:07am 156 1 5 41 92 73.5 62.3 29.24 62.3 635 587 1019 -0.42 0.00 0.00 0.000
9:08am 156 2 5 41 92 73.5 62.3 29.24 62.3 635 587 1019 -0.41 0.00 0.00 0.000
9:09am 199 4 5 41 92 73.5 62.3 29.24 62.3 635 587 1019 -0.41 0.00 0.00 0.000
9:10am 180 2 5 41 92 73.6 62.3 29.24 62.3 635 587 1019 -0.40 0.00 0.00 0.000
9:11am 135 3 4 41 91 73.6 62.3 29.24 62.3 635 664 1019 -0.39 0.00 0.00 0.000
9:12am 164 1 5 41 92 73.6 62.3 29.24 62.3 637 587 1021 -0.39 0.00 0.00 0.000
9:13am 202 4 7 40 91 73.6 62.2 29.24 62.2 637 664 1014 -0.48 0.00 0.00 0.000
9:14am 221 3 7 40 91 73.6 62.2 29.24 62.2 637 664 1014 -0.47 0.00 0.00 0.000
9:15am 222 1 7 41 91 73.6 62.1 29.24 62.1 637 663 1008 -0.56 0.00 0.00 0.000
9:16am 124 1 5 41 91 73.6 62.1 29.24 62.1 637 663 1008 -0.55 0.00 0.00 0.000
9:17am 127 3 5 41 91 73.6 62.1 29.24 62.1 636 663 1007 -0.54 0.00 0.00 0.000
9:18am 160 3 6 41 92 73.6 62.1 29.24 62.1 636 587 1007 -0.54 0.00 0.00 0.000
9:19am 174 4 6 41 91 73.6 62.1 29.24 62.1 635 663 1006 -0.53 0.00 0.00 0.000
9:20am 260 6 7 41 92 73.6 62.1 29.24 62.1 634 587 1004 -0.52 0.01 0.01 0.000
9:21am 263 3 6 41 91 73.6 62.0 29.24 62.0 634 663 998 -0.61 0.01 0.01 0.000
9:22am 179 1 6 41 91 73.6 62.0 29.24 62.0 634 663 997 -0.60 0.01 0.01 0.000
9:23am 291 1 6 41 92 73.6 62.0 29.24 62.0 633 587 996 -0.59 0.01 0.01 0.000
9:24am 195 4 6 41 92 73.6 62.0 29.24 62.0 632 587 995 -0.58 0.01 0.01 0.000
9:25am 185 1 6 41 92 73.6 61.9 29.24 61.9 632 586 988 -0.67 0.01 0.01 0.000
9:26am 185 4 4 41 92 73.6 61.9 29.24 61.9 632 586 988 -0.66 0.01 0.01 0.000
9:27am 165 4 4 41 92 73.6 61.8 29.24 61.8 632 586 982 -0.74 0.01 0.01 0.000
9:28am 166 1 4 41 92 73.6 61.8 29.25 61.8 630 586 979 -0.73 0.01 0.01 0.000
9:29am 146 2 5 41 92 73.6 61.8 29.24 61.8 631 586 980 -0.72 0.01 0.01 0.000
9:30am 168 2 5 41 92 73.6 61.7 29.24 61.7 631 586 974 -0.81 0.01 0.01 0.000
9:31am 164 2 3 41 93 73.8 61.7 29.24 61.7 632 510 975 -0.80 0.01 0.01 0.000
9:32am 222 4 4 41 93 73.8 61.7 29.24 61.7 633 510 976 -0.78 0.01 0.01 0.000
9:33am 209 7 7 41 92 73.8 61.7 29.24 61.3 633 586 976 -0.77 0.01 0.01 0.000
9:34am 181 3 7 41 93 73.8 61.6 29.24 61.6 633 510 970 -0.85 0.01 0.01 0.000
9:35am 181 1 7 41 93 73.8 61.6 29.24 61.6 634 510 971 -0.84 0.01 0.01 0.000
9:36am 181 2 3 41 93 73.8 61.6 29.24 61.6 634 510 971 -0.83 0.01 0.01 0.000
9:37am 181 1 3 41 93 73.8 61.6 29.24 61.6 634 510 971 -0.81 0.01 0.01 0.000
9:38am 181 3 3 41 93 73.8 61.5 29.24 61.5 632 510 962 -0.90 0.01 0.01 0.000
9:39am 204 2 4 41 93 73.8 61.5 29.24 61.5 631 510 961 -0.88 0.02 0.02 0.000
9:40am 205 2 4 41 93 73.8 61.5 29.24 61.5 632 510 962 -0.87 0.02 0.02 0.000
9:41am 205 1 3 41 94 73.8 61.5 29.24 61.5 632 435 962 -0.85 0.02 0.02 0.000
9:42am 205 2 3 41 94 73.8 61.5 29.25 61.5 630 435 960 -0.84 0.02 0.02 0.000
9:43am 164 1 3 41 94 73.8 61.5 29.24 61.5 631 435 961 -0.83 0.02 0.02 0.000
9:44am 164 1 3 41 94 73.8 61.5 29.24 61.5 631 435 961 -0.81 0.02 0.02 0.000
9:45am 187 2 3 41 94 73.8 61.5 29.24 61.5 634 435 964 -0.80 0.02 0.02 0.000
9:46am 164 2 4 41 94 73.8 61.4 29.24 61.4 634 434 959 -0.88 0.02 0.02 0.000
9:47am 230 3 4 41 94 73.8 61.4 29.24 61.4 633 434 957 -0.87 0.02 0.02 0.000
9:48am 186 4 5 41 94 73.8 61.5 29.24 61.5 632 435 962 -0.76 0.03 0.03 0.070
9:49am 214 1 6 41 94 73.8 61.5 29.24 61.5 631 435 961 -0.74 0.03 0.03 0.070
9:50am 216 3 6 41 94 73.8 61.4 29.24 61.4 632 434 956 -0.83 0.03 0.03 0.070
9:51am 233 1 3 41 94 73.8 61.4 29.24 61.4 633 434 957 -0.82 0.03 0.03 0.070
9:52am 208 6 8 41 94 73.8 61.4 29.24 61.2 633 434 957 -0.80 0.03 0.03 0.070
9:53am 203 5 8 41 94 73.8 61.4 29.24 61.4 631 434 954 -0.79 0.03 0.03 0.070
9:54am 185 3 8 41 94 73.8 61.4 29.24 61.4 632 434 956 -0.78 0.03 0.03 0.070
9:55am 185 2 8 41 94 73.8 61.3 29.24 61.3 631 434 948 -0.86 0.03 0.03 0.070
9:56am 185 3 3 41 95 73.8 61.3 29.24 61.3 631 360 948 -0.85 0.03 0.03 0.070
9:57am 176 3 7 41 95 73.8 61.3 29.25 61.3 630 360 947 -0.84 0.03 0.03 0.060
9:58am 189 4 9 41 95 74.0 61.3 29.25 61.3 630 360 947 -0.82 0.03 0.03 0.060
9:59am 177 3 9 41 95 74.0 61.4 29.25 61.4 627 360 950 -0.71 0.04 0.04 0.060
10:00am 230 3 9 41 95 74.0 61.3 29.25 61.3 625 360 941 -0.80 0.04 0.04 0.060
10:01am 189 3 4 41 95 74.0 61.3 29.25 61.3 627 360 943 -0.78 0.04 0.04 0.060
10:02am 214 3 7 41 95 74.0 61.3 29.25 61.3 624 360 940 -0.77 0.04 0.04 0.060
10:03am 195 8 8 41 95 74.0 61.2 29.25 60.4 622 360 931 -0.86 0.05 0.05 0.130
10:04am 170 5 10 41 95 74.0 61.3 29.25 61.3 624 360 940 -0.75 0.05 0.05 0.130
10:05am 239 3 10 41 95 74.0 61.2 29.25 61.2 625 360 935 -0.83 0.05 0.05 0.130
10:06am 241 3 6 41 95 74.0 61.2 29.25 61.2 626 360 936 -0.82 0.05 0.05 0.130
10:07am 217 7 7 41 95 74.0 61.1 29.25 60.6 626 360 929 -0.91 0.05 0.05 0.130
10:08am 181 1 7 41 95 74.0 61.1 29.25 61.1 630 360 934 -0.89 0.05 0.05 0.110
10:09am 166 5 7 41 95 74.0 61.1 29.24 61.1 632 360 936 -0.88 0.05 0.05 0.090
10:10am 177 1 7 42 95 74.0 61.1 29.24 61.1 633 360 937 -0.86 0.06 0.06 0.090
10:11am 215 14 14 41 95 74.0 61.1 29.24 59.0 633 360 937 -0.85 0.06 0.06 0.090
10:12am 145 5 14 41 95 74.0 61.0 29.24 61.0 633 360 931 -0.93 0.06 0.06 0.090
10:13am 209 7 14 41 95 74.0 61.0 29.24 60.4 634 360 932 -0.92 0.06 0.06 0.090
10:14am 204 5 14 41 95 74.0 60.9 29.24 60.9 634 360 925 -1.00 0.06 0.06 0.090
10:15am 256 2 14 41 95 74.0 60.9 29.24 60.9 634 360 925 -0.98 0.06 0.06 0.090
10:16am 185 6 8 41 95 74.0 60.9 29.24 60.6 634 360 926 -0.97 0.07 0.07 0.100
10:17am 231 5 8 41 95 74.0 60.9 29.24 60.9 635 360 928 -0.95 0.07 0.07 0.100
10:18am 224 3 8 41 95 74.0 60.9 29.24 60.9 636 360 929 -0.94 0.07 0.07 0.100
10:19am 252 2 8 41 95 74.0 60.9 29.24 60.9 635 360 928 -0.92 0.07 0.07 0.100
10:20am 150 5 8 41 96 74.0 60.9 29.24 60.9 637 286 930 -0.90 0.07 0.07 0.100
10:21am 31 2 5 41 95 74.0 60.9 29.24 60.9 637 360 930 -0.89 0.07 0.07 0.100
10:22am 201 4 8 41 95 74.0 60.9 29.24 60.9 639 360 932 -0.87 0.07 0.07 0.090
10:23am 193 1 8 41 96 74.0 60.8 29.23 60.8 640 286 927 -0.96 0.07 0.07 0.080
10:24am 185 5 8 41 96 74.0 60.8 29.24 60.8 639 286 926 -0.94 0.07 0.07 0.070
10:25am 183 2 8 41 96 74.0 60.8 29.23 60.8 641 286 928 -0.93 0.07 0.07 0.060
10:26am 238 2 5 41 96 74.0 60.7 29.23 60.7 642 286 922 -1.01 0.07 0.07 0.060
10:27am 256 2 5 41 96 74.0 60.7 29.23 60.7 642 286 922 -0.99 0.07 0.07 0.050
10:28am 194 4 6 41 96 74.0 60.7 29.23 60.7 642 286 922 -0.98 0.07 0.07 0.050
10:29am 208 3 6 42 96 74.0 60.7 29.23 60.7 642 286 922 -0.96 0.08 0.08 0.050
10:30am 177 4 6 41 96 74.0 60.6 29.24 60.6 639 286 913 -1.05 0.08 0.08 0.050
10:31am 188 2 6 41 96 74.2 60.7 29.24 60.7 639 286 919 -0.93 0.08 0.08 0.050
10:32am 146 3 6 41 96 74.2 60.7 29.23 60.7 642 286 922 -0.91 0.08 0.08 0.050
10:33am 174 6 7 41 96 74.2 60.7 29.23 60.4 641 286 921 -0.90 0.08 0.08 0.050
10:34am 220 4 11 41 96 74.2 60.6 29.23 60.6 642 286 916 -0.98 0.08 0.08 0.050
10:35am 189 2 11 41 96 74.2 60.6 29.23 60.6 641 286 915 -0.97 0.08 0.08 0.050
10:36am 211 3 3 41 96 74.2 60.6 29.24 60.6 639 286 913 -0.95 0.08 0.08 0.050
10:37am 208 0 3 41 96 74.2 60.6 29.24 60.6 639 286 913 -0.94 0.08 0.08 0.050
10:38am 208 2 3 41 96 74.2 60.6 29.23 60.6 643 286 917 -0.92 0.08 0.08 0.050
10:39am 188 5 9 41 96 74.2 60.6 29.23 60.6 643 286 917 -0.91 0.08 0.08 0.050
10:40am 201 4 9 41 96 74.2 60.6 29.23 60.6 643 286 917 -0.89 0.08 0.08 0.050
10:41am 289 4 5 41 96 74.2 60.6 29.23 60.6 641 286 915 -0.87 0.08 0.08 0.050
10:42am 201 3 7 41 96 74.2 60.6 29.23 60.6 641 286 915 -0.86 0.08 0.08 0.040
10:43am 231 3 7 41 96 74.2 60.6 29.24 60.6 638 286 911 -0.85 0.08 0.08 0.040
10:44am 170 5 7 41 96 74.2 60.6 29.24 60.6 639 286 913 -0.83 0.08 0.08 0.040
10:45am 159 1 9 41 96 74.2 60.5 29.24 60.5 637 286 904 -0.92 0.08 0.08 0.040
10:46am 202 8 9 41 96 74.2 60.5 29.24 59.6 636 286 903 -0.90 0.08 0.08 0.000
10:47am 183 4 9 41 96 74.2 60.5 29.24 60.5 634 286 900 -0.89 0.08 0.08 0.000
10:48am 152 5 9 41 96 74.2 60.5 29.24 60.5 634 286 900 -0.87 0.09 0.09 0.000
10:49am 188 4 9 41 96 74.2 60.5 29.24 60.5 634 286 900 -0.86 0.09 0.09 0.000
10:50am 273 4 9 41 96 74.2 60.5 29.24 60.5 634 286 899 -0.85 0.09 0.09 0.000
10:51am 188 2 5 41 96 74.2 60.5 29.24 60.5 634 286 899 -0.83 0.09 0.09 0.000
10:52am 254 1 5 41 96 74.2 60.6 29.24 60.6 634 286 906 -0.72 0.09 0.09 0.000
10:53am 180 2 6 41 96 74.2 60.6 29.24 60.6 634 286 906 -0.71 0.09 0.09 0.000
10:54am 256 3 6 41 96 74.2 60.6 29.24 60.6 633 286 905 -0.70 0.09 0.09 0.000
10:55am 202 1 6 41 96 74.2 60.6 29.24 60.6 633 286 905 -0.68 0.09 0.09 0.000
10:56am 173 4 5 41 96 74.2 60.6 29.24 60.6 631 286 902 -0.67 0.09 0.09 0.000
10:57am 212 3 5 41 96 74.2 60.6 29.24 60.6 631 286 902 -0.66 0.09 0.09 0.000
10:58am 170 4 5 41 96 74.2 60.6 29.24 60.6 631 286 902 -0.65 0.09 0.09 0.000
10:59am 220 0 5 41 97 74.2 60.6 29.24 60.6 632 213 903 -0.64 0.09 0.09 0.000
11:00am 195 7 8 41 97 74.2 60.6 29.24 60.0 633 213 905 -0.63 0.09 0.09 0.000
11:01am 162 6 8 41 96 74.2 60.7 29.24 60.4 633 286 911 -0.52 0.09 0.09 0.000
11:02am 228 3 8 41 96 74.2 60.7 29.24 60.7 633 286 911 -0.51 0.09 0.09 0.000
11:03am 190 6 8 41 96 74.2 60.6 29.24 60.3 634 286 906 -0.60 0.09 0.09 0.000
11:04am 199 4 8 41 97 74.2 60.6 29.24 60.6 634 213 906 -0.59 0.09 0.09 0.000
11:05am 193 2 8 41 97 74.2 60.6 29.24 60.6 634 213 906 -0.58 0.09 0.09 0.000
11:06am 181 4 7 41 97 74.3 60.7 29.24 60.7 634 213 913 -0.47 0.10 0.10 0.000
11:07am 156 2 7 41 96 74.3 60.6 29.24 60.6 634 286 907 -0.56 0.10 0.10 0.000
11:08am 162 4 7 41 97 74.3 60.6 29.24 60.6 635 213 908 -0.55 0.10 0.10 0.000
11:09am 212 2 7 41 97 74.3 60.6 29.24 60.6 634 213 907 -0.55 0.10 0.10 0.000
11:10am 186 4 7 41 97 74.3 60.6 29.24 60.6 634 213 906 -0.54 0.10 0.10 0.000
11:11am 131 3 8 41 97 74.3 60.6 29.24 60.6 634 213 907 -0.53 0.11 0.11 0.140
11:12am 162 4 8 41 96 74.3 60.6 29.24 60.6 634 286 906 -0.52 0.11 0.11 0.140
11:13am 237 4 8 41 97 74.3 60.6 29.24 60.6 634 213 906 -0.51 0.11 0.11 0.140
11:14am 159 1 8 41 96 74.3 60.5 29.24 60.5 634 286 900 -0.60 0.11 0.11 0.140
11:15am 226 1 8 41 96 74.3 60.5 29.24 60.5 634 286 899 -0.59 0.11 0.11 0.120
11:16am 188 2 3 41 97 74.3 60.5 29.24 60.5 634 213 899 -0.58 0.11 0.11 0.100
11:17am 148 2 7 41 96 74.3 60.4 29.24 60.4 634 286 893 -0.67 0.11 0.11 0.090
11:18am 188 4 7 41 96 74.3 60.4 29.24 60.4 634 286 894 -0.66 0.11 0.11 0.070
11:19am 158 4 9 41 96 74.3 60.4 29.24 60.4 636 286 896 -0.65 0.11 0.11 0.070
11:20am 224 3 9 41 96 74.3 60.4 29.24 60.4 637 286 897 -0.64 0.12 0.12 0.070
11:21am 183 3 4 41 97 74.3 60.4 29.23 60.4 640 213 901 -0.63 0.12 0.12 0.070
11:22am 187 5 6 41 97 74.3 60.3 29.23 60.3 641 213 895 -0.72 0.12 0.12 0.070
11:23am 206 5 6 41 96 74.3 60.4 29.23 60.4 640 286 901 -0.60 0.12 0.12 0.070
11:24am 153 4 6 41 97 74.3 60.3 29.24 60.3 637 213 891 -0.69 0.12 0.12 0.070
11:25am 177 1 7 41 97 74.3 60.3 29.24 60.3 638 213 892 -0.68 0.12 0.12 0.070
11:26am 214 8 11 41 96 74.3 60.3 29.24 59.3 639 285 893 -0.67 0.12 0.12 0.070
11:27am 139 7 11 41 97 74.3 60.2 29.23 59.5 641 213 889 -0.76 0.12 0.12 0.070
11:28am 134 6 11 41 97 74.3 60.2 29.23 59.8 643 213 891 -0.74 0.12 0.12 0.070
11:29am 187 6 11 41 97 74.3 60.2 29.23 59.8 641 213 889 -0.73 0.12 0.12 0.060
11:30am 216 9 11 41 97 74.3 60.2 29.23 58.9 643 213 891 -0.72 0.12 0.12 0.050
11:31am 183 4 10 41 97 74.3 60.1 29.23 60.1 644 213 886 -0.81 0.12 0.12 0.050
11:32am 150 5 10 41 97 74.3 60.1 29.23 60.1 646 213 888 -0.79 0.13 0.13 0.050
11:33am 177 2 10 41 97 74.3 60.1 29.23 60.1 646 213 888 -0.78 0.13 0.13 0.050
11:34am 264 5 10 41 97 74.3 60.1 29.23 60.1 646 213 889 -0.77 0.13 0.13 0.050
11:35am 220 2 10 41 97 74.3 60.1 29.23 60.1 646 213 889 -0.75 0.13 0.13 0.050
11:36am 135 3 5 41 97 74.3 60.1 29.23 60.1 648 213 891 -0.74 0.13 0.13 0.050
11:37am 141 7 9 41 97 74.3 60.1 29.22 59.4 649 213 892 -0.73 0.13 0.13 0.050
11:38am 224 4 9 41 97 74.3 60.1 29.22 60.1 649 213 892 -0.72 0.13 0.13 0.050
11:39am 262 4 9 41 97 74.3 60.1 29.22 60.1 651 213 895 -0.71 0.13 0.13 0.050
11:40am 191 2 9 41 97 74.3 60.1 29.22 60.1 653 213 897 -0.69 0.13 0.13 0.050
11:41am 321 2 12 41 97 74.3 60.0 29.22 60.0 654 213 892 -0.78 0.13 0.13 0.050
11:42am 187 3 12 41 97 74.3 60.1 29.22 60.1 653 213 897 -0.67 0.13 0.13 0.050
11:43am 282 4 12 41 97 74.3 60.1 29.22 60.1 654 213 898 -0.66 0.13 0.13 0.050
11:44am 207 3 12 41 97 74.3 60.0 29.22 60.0 653 213 890 -0.75 0.13 0.13 0.050
11:45am 243 6 12 41 97 74.3 60.0 29.22 59.6 652 213 889 -0.73 0.13 0.13 0.050
11:46am 181 6 6 41 97 74.5 59.9 29.22 59.5 656 213 887 -0.82 0.13 0.13 0.040
11:47am 161 10 10 41 97 74.5 59.9 29.22 58.3 658 213 890 -0.81 0.13 0.13 0.040
11:48am 255 2 11 41 97 74.5 59.9 29.22 59.9 657 213 888 -0.79 0.13 0.13 0.040
11:49am 204 13 13 41 97 74.5 59.9 29.22 57.7 654 213 885 -0.78 0.13 0.13 0.000
11:50am 145 7 13 41 97 74.5 59.9 29.21 59.1 659 213 891 -0.77 0.13 0.13 0.000
11:51am 179 1 7 41 97 74.5 59.9 29.22 59.9 657 213 888 -0.76 0.13 0.13 0.000
11:52am 155 0 7 41 97 74.5 59.9 29.22 59.9 655 213 886 -0.74 0.13 0.13 0.000
11:53am 164 7 9 41 97 74.5 60.0 29.22 59.2 654 213 892 -0.63 0.13 0.13 0.000
11:54am 153 6 9 41 97 74.5 60.0 29.22 59.6 658 213 896 -0.62 0.13 0.13 0.000
11:55am 187 4 9 41 97 74.5 60.0 29.22 60.0 655 213 893 -0.61 0.13 0.13 0.000
11:56am 255 4 8 41 97 74.5 60.0 29.22 60.0 656 213 894 -0.60 0.13 0.13 0.000
11:57am 192 3 8 41 97 74.5 60.0 29.21 60.0 659 213 897 -0.59 0.13 0.13 0.000
11:58am 145 7 8 41 97 74.5 60.1 29.22 59.4 657 213 902 -0.48 0.13 0.13 0.000
11:59am 190 3 9 41 97 74.5 60.1 29.22 60.1 656 213 900 -0.47 0.13 0.13 0.000
12:00pm 243 6 10 41 97 74.5 60.1 29.22 59.7 654 213 898 -0.47 0.13 0.13 0.000
12:01pm 226 2 11 41 97 74.5 60.0 29.22 60.0 658 213 896 -0.56 0.13 0.13 0.000
12:02pm 183 6 11 41 97 74.5 60.1 29.21 59.7 659 213 904 -0.45 0.13 0.13 0.000
12:03pm 210 3 11 41 97 74.5 60.1 29.22 60.1 652 213 896 -0.44 0.13 0.13 0.000
12:04pm 216 2 11 41 97 74.5 60.0 29.22 60.0 654 213 892 -0.53 0.13 0.13 0.000
12:05pm 268 2 11 41 97 74.5 60.1 29.22 60.1 650 213 894 -0.42 0.13 0.13 0.000
12:06pm 204 8 8 41 97 74.5 60.1 29.22 59.1 651 213 895 -0.42 0.13 0.13 0.000
12:07pm 224 9 13 41 97 74.5 60.0 29.22 58.7 650 213 887 -0.51 0.13 0.13 0.000
12:08pm 158 16 16 41 97 74.5 60.0 29.22 57.3 652 213 889 -0.50 0.13 0.13 0.000
12:09pm 195 2 16 41 97 74.5 60.0 29.22 60.0 655 213 893 -0.49 0.13 0.13 0.000
12:10pm 208 3 16 41 97 74.5 60.0 29.22 60.0 652 213 889 -0.48 0.13 0.13 0.000
12:11pm 184 6 7 41 97 74.5 60.1 29.22 59.7 650 213 894 -0.38 0.13 0.13 0.000
12:12pm 181 3 7 41 97 74.5 60.1 29.22 60.1 651 213 895 -0.37 0.13 0.13 0.000
12:13pm 155 1 7 41 97 74.5 60.2 29.22 60.2 651 213 901 -0.26 0.13 0.13 0.000
12:14pm 191 4 7 41 97 74.5 60.1 29.22 60.1 652 213 896 -0.36 0.13 0.13 0.000
12:15pm 185 4 7 43 97 74.5 60.1 29.22 60.1 652 213 896 -0.35 0.13 0.13 0.000
12:16pm 274 3 4 41 97 74.5 60.1 29.22 60.1 652 213 896 -0.35 0.13 0.13 0.000
12:17pm 162 4 5 41 97 74.5 60.1 29.22 60.1 651 213 895 -0.34 0.13 0.13 0.000
12:18pm 197 11 11 41 97 74.5 60.2 29.22 58.5 653 213 904 -0.24 0.13 0.13 0.000
12:19pm 181 2 11 41 97 74.5 60.1 29.22 60.1 653 213 897 -0.33 0.13 0.13 0.000
12:20pm 322 5 11 41 97 74.5 60.1 29.22 60.1 654 213 898 -0.33 0.13 0.13 0.000
12:21pm 220 2 5 41 97 74.5 60.1 29.22 60.1 652 213 896 -0.32 0.13 0.13 0.000
12:22pm 178 4 6 41 97 74.5 60.1 29.22 60.1 655 213 899 -0.32 0.13 0.13 0.000
12:23pm 151 10 10 41 97 74.5 60.1 29.22 58.6 656 213 900 -0.31 0.13 0.13 0.000
12:24pm 185 5 11 41 97 74.5 60.0 29.22 60.0 655 213 893 -0.40 0.13 0.13 0.000
12:25pm 167 2 11 41 97 74.5 60.1 29.22 60.1 657 213 902 -0.30 0.13 0.13 0.000
12:26pm 235 6 7 41 97 74.5 60.0 29.22 59.6 657 213 895 -0.39 0.13 0.13 0.000
12:27pm 203 2 8 41 97 74.5 60.0 29.22 60.0 657 213 895 -0.39 0.13 0.13 0.000
12:28pm 207 4 8 41 97 74.5 60.0 29.22 60.0 655 213 893 -0.38 0.13 0.13 0.000
12:29pm 140 7 8 41 97 74.5 60.0 29.22 59.2 658 213 896 -0.37 0.13 0.13 0.000
12:30pm 310 1 8 41 97 74.5 59.9 29.22 59.9 658 213 890 -0.47 0.13 0.13 0.000
12:31pm 251 5 7 41 97 74.5 60.0 29.22 60.0 657 213 895 -0.36 0.13 0.13 0.000
12:32pm 177 2 7 41 97 74.5 60.0 29.21 60.0 659 213 898 -0.35 0.13 0.13 0.000
12:33pm 268 5 7 41 97 74.5 60.0 29.21 60.0 659 213 898 -0.35 0.13 0.13 0.000
12:34pm 181 5 8 41 97 74.5 60.0 29.21 60.0 660 213 900 -0.34 0.13 0.13 0.000
12:35pm 331 2 8 41 97 74.5 60.0 29.21 60.0 661 213 901 -0.34 0.13 0.13 0.000
12:36pm 189 4 4 41 97 74.7 60.0 29.21 60.0 661 213 901 -0.33 0.13 0.13 0.000
12:37pm 211 3 8 41 97 74.5 60.0 29.21 60.0 661 213 901 -0.33 0.13 0.13 0.000
12:38pm 196 2 8 41 97 74.7 60.0 29.21 60.0 661 213 901 -0.32 0.13 0.13 0.000
12:39pm 192 3 8 41 97 74.7 60.1 29.21 60.1 661 213 907 -0.22 0.13 0.13 0.000
12:40pm 105 2 8 41 97 74.7 60.1 29.21 60.1 661 213 907 -0.21 0.13 0.13 0.000
12:41pm 224 3 4 41 97 74.7 60.1 29.21 60.1 661 213 907 -0.21 0.13 0.13 0.000
12:42pm 263 14 14 41 97 74.7 60.1 29.21 57.8 660 213 906 -0.21 0.13 0.13 0.000
12:43pm 195 4 14 41 97 74.7 60.1 29.21 60.1 661 213 907 -0.20 0.13 0.13 0.000
12:44pm 200 0 14 41 97 74.7 60.1 29.21 60.1 661 213 907 -0.20 0.13 0.13 0.000
12:45pm 200 2 14 41 97 74.7 60.1 29.21 60.1 660 213 906 -0.20 0.13 0.13 0.000
12:46pm 220 3 5 41 97 74.7 60.1 29.21 60.1 659 213 905 -0.19 0.13 0.13 0.000
12:47pm 140 1 5 41 97 74.7 60.2 29.21 60.2 660 213 913 -0.09 0.13 0.13 0.000
12:48pm 173 4 5 41 97 74.7 60.2 29.21 60.2 660 213 913 -0.09 0.13 0.13 0.000
12:49pm 236 3 8 41 97 74.7 60.2 29.21 60.2 660 213 913 -0.09 0.13 0.13 0.000
12:50pm 174 3 8 41 97 74.7 60.2 29.21 60.2 660 213 913 -0.09 0.13 0.13 0.000
12:51pm 187 2 6 41 97 74.7 60.3 29.21 60.3 661 213 920 0.01 0.13 0.13 0.000
12:52pm 229 5 7 41 97 74.7 60.3 29.21 60.3 661 213 920 0.02 0.13 0.13 0.000
12:53pm 300 4 7 41 97 74.7 60.3 29.21 60.3 661 213 920 0.02 0.13 0.13 0.000
12:54pm 231 6 9 41 97 74.7 60.3 29.21 59.9 661 213 920 0.02 0.13 0.13 0.000
12:55pm 211 4 9 41 97 74.7 60.2 29.21 60.2 661 213 914 -0.08 0.13 0.13 0.000
12:56pm 158 2 8 41 97 74.7 60.3 29.21 60.3 661 213 920 0.02 0.13 0.13 0.000
12:57pm 158 7 8 41 97 74.7 60.3 29.21 59.6 661 213 920 0.02 0.13 0.13 0.000
12:58pm 204 2 8 41 97 74.7 60.3 29.21 60.3 661 213 920 0.02 0.13 0.13 0.000
12:59pm 168 3 8 41 97 74.7 60.3 29.21 60.3 662 213 921 0.02 0.13 0.13 0.000
1:00pm 187 4 8 41 97 74.7 60.3 29.21 60.3 662 213 921 0.02 0.13 0.13 0.000
1:01pm 251 5 9 41 97 74.7 60.4 29.21 60.4 661 213 927 0.12 0.13 0.13 0.000
1:02pm 214 4 9 41 97 74.7 60.3 29.21 60.3 661 213 920 0.02 0.13 0.13 0.000
1:03pm 172 4 9 41 97 74.7 60.3 29.21 60.3 661 213 920 0.01 0.13 0.13 0.000
1:04pm 201 2 9 41 97 74.7 60.3 29.21 60.3 661 213 920 0.01 0.13 0.13 0.000
1:05pm 204 3 9 41 97 74.7 60.4 29.21 60.4 661 213 927 0.11 0.13 0.13 0.000
1:06pm 203 2 4 41 97 74.7 60.4 29.21 60.4 662 213 928 0.11 0.13 0.13 0.000
1:07pm 220 2 7 41 97 74.7 60.5 29.21 60.5 662 213 935 0.21 0.13 0.13 0.000
1:08pm 158 3 9 41 97 74.7 60.5 29.21 60.5 664 213 937 0.21 0.13 0.13 0.000
1:09pm 172 5 9 41 97 74.7 60.5 29.21 60.5 664 213 937 0.20 0.13 0.13 0.000
1:10pm 141 2 9 41 97 74.7 60.5 29.21 60.5 665 213 938 0.20 0.13 0.13 0.000
1:11pm 233 2 2 41 97 74.7 60.5 29.21 60.5 666 213 939 0.20 0.13 0.13 0.000
1:12pm 169 7 8 41 97 74.7 60.5 29.21 59.8 665 213 938 0.19 0.13 0.13 0.000
1:13pm 187 3 8 41 97 74.7 60.5 29.21 60.5 665 213 938 0.19 0.13 0.13 0.000
1:14pm 202 2 8 41 97 74.7 60.6 29.21 60.6 663 213 942 0.28 0.13 0.13 0.000
1:15pm 241 3 8 41 97 74.7 60.6 29.21 60.6 663 213 942 0.28 0.13 0.13 0.000
1:16pm 187 1 3 41 97 74.7 60.7 29.21 60.7 663 213 949 0.37 0.13 0.13 0.000
1:17pm 230 1 4 41 97 74.7 60.7 29.21 60.7 663 213 949 0.37 0.13 0.13 0.000
1:18pm 184 2 4 41 97 74.7 60.7 29.21 60.7 665 213 951 0.36 0.13 0.13 0.000
1:19pm 200 3 4 41 97 74.7 60.7 29.21 60.7 663 213 949 0.36 0.13 0.13 0.000
1:20pm 197 4 4 41 97 74.7 60.7 29.21 60.7 663 213 949 0.35 0.13 0.13 0.000
1:21pm 258 1 4 41 97 74.7 60.7 29.21 60.7 663 213 949 0.35 0.13 0.13 0.000
1:22pm 176 2 4 41 97 74.7 60.8 29.21 60.8 662 213 954 0.44 0.13 0.13 0.000
1:23pm 226 2 8 41 97 74.7 60.8 29.21 60.8 662 213 954 0.43 0.13 0.13 0.000
1:24pm 178 3 8 41 97 74.7 60.8 29.21 60.8 663 213 955 0.42 0.13 0.13 0.000
1:25pm 216 4 8 41 97 74.7 60.8 29.21 60.8 664 213 956 0.42 0.13 0.13 0.000
1:26pm 211 4 4 41 97 74.7 60.8 29.21 60.8 665 213 958 0.41 0.13 0.13 0.000
1:27pm 195 3 6 41 97 74.7 60.8 29.21 60.8 666 213 959 0.40 0.13 0.13 0.000
1:28pm 195 1 6 41 97 74.7 60.9 29.21 60.9 667 213 966 0.49 0.13 0.13 0.000
1:29pm 237 5 7 41 97 74.7 60.9 29.21 60.9 667 213 966 0.49 0.13 0.13 0.000
1:30pm 168 2 8 41 97 74.7 60.9 29.21 60.9 666 213 965 0.48 0.13 0.13 0.000
1:31pm 173 5 5 41 97 74.7 61.0 29.20 61.0 668 213 974 0.57 0.13 0.13 0.000
1:32pm 153 5 7 41 97 74.7 61.1 29.21 61.1 664 214 976 0.66 0.13 0.13 0.000
1:33pm 188 1 7 41 97 74.7 61.1 29.21 61.1 663 214 975 0.65 0.13 0.13 0.000
1:34pm 177 5 7 41 97 74.7 61.1 29.21 61.1 664 214 976 0.64 0.13 0.13 0.000
1:35pm 212 1 7 41 96 74.7 61.1 29.21 61.1 662 286 974 0.63 0.13 0.13 0.000
1:36pm 212 1 2 41 96 74.9 61.1 29.21 61.1 662 286 974 0.62 0.13 0.13 0.000
1:37pm 222 3 4 41 97 74.9 61.2 29.21 61.2 661 214 979 0.71 0.13 0.13 0.000
1:38pm 220 3 4 41 97 74.9 61.2 29.21 61.2 661 214 979 0.69 0.13 0.13 0.000
1:39pm 220 3 4 41 97 74.9 61.2 29.21 61.2 661 214 979 0.68 0.13 0.13 0.000
1:40pm 163 5 6 41 97 74.9 61.3 29.21 61.3 662 214 987 0.77 0.13 0.13 0.000
1:41pm 230 1 6 41 97 74.9 61.3 29.21 61.3 663 214 988 0.76 0.13 0.13 0.000
1:42pm 286 5 6 41 97 74.9 61.4 29.21 61.4 663 214 994 0.84 0.13 0.13 0.000
1:43pm 164 2 6 41 96 74.9 61.4 29.21 61.4 663 287 994 0.83 0.13 0.13 0.000
1:44pm 234 3 6 41 96 74.9 61.4 29.21 61.4 662 287 993 0.82 0.13 0.13 0.000
1:45pm 220 3 6 41 96 74.9 61.4 29.21 61.4 663 287 994 0.80 0.13 0.13 0.000
1:46pm 224 2 4 41 96 74.9 61.4 29.21 61.4 663 287 994 0.79 0.13 0.13 0.000
1:47pm 224 5 5 41 96 74.9 61.5 29.21 61.5 664 287 1002 0.88 0.13 0.13 0.000
1:48pm 183 5 7 41 96 74.9 61.5 29.21 61.5 662 287 1000 0.86 0.13 0.13 0.000
1:49pm 218 0 7 41 96 74.9 61.5 29.21 61.5 663 287 1001 0.85 0.13 0.13 0.000
1:50pm 218 1 7 41 96 74.9 61.6 29.21 61.6 663 287 1007 0.93 0.13 0.13 0.000
1:51pm 218 2 2 41 96 74.9 61.7 29.21 61.7 664 287 1015 1.02 0.13 0.13 0.000
1:52pm 218 0 2 41 96 74.9 61.7 29.21 61.7 666 287 1017 1.00 0.13 0.13 0.000
1:53pm 218 0 2 41 96 74.9 61.8 29.21 61.8 666 287 1024 1.08 0.13 0.13 0.000
1:54pm 218 0 2 41 96 74.9 61.8 29.20 61.8 669 287 1027 1.06 0.13 0.13 0.000
1:55pm 179 3 6 41 97 74.9 61.9 29.20 61.9 670 214 1035 1.15 0.13 0.13 0.000
1:56pm 176 6 6 41 96 74.9 61.8 29.20 61.7 669 287 1027 1.03 0.13 0.13 0.000
1:57pm 180 0 6 41 96 74.9 61.8 29.21 61.8 667 287 1025 1.01 0.13 0.13 0.000
1:58pm 129 3 6 41 96 74.9 61.8 29.21 61.8 666 287 1024 1.00 0.13 0.13 0.000
1:59pm 213 2 6 41 96 74.9 61.8 29.21 61.8 664 287 1021 0.98 0.13 0.13 0.000
2:00pm 70 1 6 41 96 74.9 61.9 29.21 61.9 664 287 1028 1.06 0.13 0.13 0.000
2:01pm 112 4 6 41 96 74.9 61.9 29.21 61.9 663 287 1027 1.04 0.13 0.13 0.000
2:02pm 156 5 6 41 96 74.9 61.9 29.21 61.9 663 287 1027 1.03 0.13 0.13 0.000
2:03pm 235 6 6 41 96 74.9 62.0 29.21 62.0 664 287 1034 1.11 0.13 0.13 0.000
2:04pm 220 0 6 41 96 74.9 62.0 29.21 62.0 665 287 1036 1.09 0.13 0.13 0.000
2:05pm 178 6 6 41 96 74.9 62.0 29.21 62.0 665 287 1036 1.07 0.13 0.13 0.000
2:06pm 187 1 7 41 96 74.9 62.1 29.21 62.1 667 288 1044 1.15 0.13 0.13 0.000
2:07pm 205 4 8 41 96 74.9 62.1 29.21 62.1 665 288 1042 1.13 0.13 0.13 0.000
2:08pm 194 2 8 43 95 74.9 62.1 29.21 62.1 665 361 1042 1.12 0.13 0.13 0.000
2:09pm 195 1 8 41 95 74.9 62.2 29.21 62.2 665 361 1049 1.20 0.13 0.13 0.000
2:10pm 195 0 8 41 96 74.9 62.3 29.21 62.3 666 288 1056 1.27 0.13 0.13 0.000
2:11pm 193 5 5 41 96 74.9 62.3 29.21 62.3 664 288 1054 1.25 0.13 0.13 0.000
2:12pm 210 5 5 41 96 74.9 62.4 29.21 62.4 664 288 1060 1.33 0.13 0.13 0.000
2:13pm 237 0 5 41 95 74.9 62.4 29.21 62.4 663 362 1059 1.31 0.13 0.13 0.000
2:14pm 225 1 6 41 95 74.9 62.4 29.21 62.4 666 362 1063 1.29 0.13 0.13 0.000
2:15pm 225 0 6 41 95 74.9 62.4 29.20 62.4 670 362 1067 1.27 0.13 0.13 0.000
2:16pm 225 1 2 41 95 74.9 62.4 29.20 62.4 671 362 1070 1.24 0.13 0.13 0.000
2:17pm 196 3 4 41 95 74.9 62.5 29.20 62.5 672 362 1077 1.32 0.13 0.13 0.000
2:18pm 238 3 7 41 95 74.9 62.5 29.20 62.5 673 362 1078 1.30 0.13 0.13 0.000
2:19pm 226 1 7 41 95 74.9 62.5 29.20 62.5 672 362 1077 1.28 0.13 0.13 0.000
2:20pm 185 2 7 41 95 74.9 62.6 29.20 62.6 673 362 1085 1.36 0.13 0.13 0.000
2:21pm 202 3 4 41 95 74.9 62.7 29.20 62.7 674 362 1093 1.43 0.13 0.13 0.000
2:22pm 202 0 4 41 95 74.9 62.7 29.20 62.7 674 362 1093 1.41 0.13 0.13 0.000
2:23pm 202 0 4 41 95 74.9 62.7 29.20 62.7 674 362 1093 1.39 0.13 0.13 0.000
2:24pm 202 2 4 41 95 74.9 62.7 29.20 62.7 674 362 1093 1.36 0.13 0.13 0.000
2:25pm 202 2 4 41 95 74.9 62.8 29.20 62.8 674 362 1099 1.44 0.13 0.13 0.000
2:26pm 202 2 2 41 95 74.9 62.9 29.20 62.9 674 363 1105 1.52 0.13 0.13 0.000
2:27pm 202 4 6 41 95 74.9 62.9 29.20 62.9 673 363 1104 1.49 0.13 0.13 0.000
2:28pm 188 2 6 41 95 74.9 62.9 29.20 62.9 674 363 1105 1.47 0.13 0.13 0.000
2:29pm 166 5 7 41 95 74.9 63.0 29.20 63.0 675 363 1113 1.54 0.13 0.13 0.000
2:30pm 235 1 7 41 94 75.0 63.0 29.20 63.0 674 437 1112 1.51 0.13 0.13 0.000
2:31pm 232 3 3 41 94 75.0 63.1 29.20 63.1 674 438 1118 1.59 0.13 0.13 0.000
2:32pm 212 3 6 41 94 75.0 63.0 29.20 63.0 674 437 1112 1.46 0.13 0.13 0.000
2:33pm 212 2 6 41 94 75.0 63.1 29.20 63.1 674 438 1118 1.54 0.13 0.13 0.000
2:34pm 241 4 7 41 94 75.0 63.1 29.20 63.1 673 438 1117 1.51 0.13 0.13 0.000
2:35pm 238 2 7 41 94 75.0 63.2 29.20 63.2 673 438 1124 1.59 0.13 0.13 0.000
2:36pm 237 2 2 41 94 75.0 63.3 29.20 63.3 674 438 1131 1.66 0.13 0.13 0.000
2:37pm 236 2 3 41 94 75.0 63.3 29.20 63.3 674 438 1131 1.63 0.13 0.13 0.000
2:38pm 212 1 3 41 94 75.0 63.4 29.20 63.4 675 438 1139 1.70 0.13 0.13 0.000
2:39pm 185 5 5 41 94 75.0 63.5 29.20 63.5 675 438 1146 1.77 0.13 0.13 0.000
2:40pm 187 3 5 41 94 75.0 63.5 29.20 63.5 675 438 1146 1.74 0.13 0.13 0.000
2:41pm 131 4 4 41 94 75.0 63.5 29.20 63.5 676 438 1147 1.72 0.13 0.13 0.000
2:42pm 120 1 6 41 94 75.0 63.5 29.20 63.5 676 438 1147 1.69 0.13 0.13 0.000
2:43pm 119 1 6 41 94 75.0 63.6 29.20 63.6 676 439 1153 1.76 0.13 0.13 0.000
2:44pm 120 2 6 41 94 75.0 63.6 29.20 63.6 676 439 1153 1.73 0.13 0.13 0.000
2:45pm 165 1 6 41 94 75.0 63.7 29.20 63.7 676 439 1160 1.80 0.13 0.13 0.000
2:46pm 183 1 3 41 94 75.0 63.8 29.20 63.8 675 439 1165 1.87 0.13 0.13 0.000
2:47pm 10 1 3 41 94 75.0 63.9 29.20 63.9 675 439 1171 1.94 0.13 0.13 0.000
2:48pm 81 1 3 41 94 75.0 63.9 29.20 63.9 675 439 1171 1.90 0.13 0.13 0.000
2:49pm 81 4 5 41 94 75.0 63.9 29.20 63.9 675 439 1171 1.87 0.13 0.13 0.000
2:50pm 181 4 5 41 93 75.0 63.9 29.20 63.9 676 515 1173 1.84 0.13 0.13 0.000
2:51pm 183 0 5 41 93 75.0 63.9 29.20 63.9 676 515 1173 1.81 0.13 0.13 0.000
2:52pm 195 7 7 41 93 75.0 64.0 29.20 64.0 676 515 1179 1.88 0.13 0.13 0.000
2:53pm 231 3 7 41 93 75.0 64.0 29.20 64.0 676 515 1179 1.85 0.13 0.13 0.000
2:54pm 202 0 7 41 92 75.0 64.0 29.20 64.0 676 592 1179 1.82 0.13 0.13 0.000
2:55pm 202 1 7 41 92 75.0 64.1 29.20 64.1 676 592 1186 1.89 0.13 0.13 0.000
2:56pm 202 2 6 41 92 75.0 64.2 29.20 64.2 675 592 1191 1.96 0.13 0.13 0.000
2:57pm 226 1 6 41 92 75.0 64.3 29.20 64.3 675 592 1197 2.02 0.13 0.13 0.000
2:58pm 160 8 8 41 92 75.0 64.3 29.20 64.2 675 592 1197 1.99 0.13 0.13 0.000
2:59pm 158 3 8 41 92 75.0 64.3 29.20 64.3 675 592 1197 1.96 0.13 0.13 0.000
3:00pm 120 2 8 41 92 75.0 64.4 29.20 64.4 676 593 1205 2.02 0.13 0.13 0.000
3:01pm 192 1 5 41 92 75.0 64.5 29.20 64.5 675 593 1210 2.09 0.13 0.13 0.000
3:02pm 192 1 5 41 92 75.0 64.6 29.20 64.6 676 593 1218 2.16 0.13 0.13 0.000
3:03pm 212 1 5 41 92 75.0 64.7 29.20 64.7 676 593 1224 2.22 0.13 0.13 0.000
3:04pm 183 3 5 41 92 75.0 64.7 29.20 64.7 677 593 1225 2.18 0.13 0.13 0.000
3:05pm 204 6 8 41 91 75.0 64.7 29.19 64.7 679 671 1228 2.15 0.13 0.13 0.000
3:06pm 145 3 6 41 90 75.0 64.7 29.19 64.7 679 749 1228 2.11 0.13 0.13 0.000
3:07pm 199 3 6 41 91 75.0 64.9 29.19 64.9 678 671 1239 2.27 0.13 0.13 0.000
3:08pm 193 7 10 41 90 75.0 65.0 29.19 65.0 678 750 1246 2.34 0.13 0.13 0.000
3:09pm 220 4 10 41 89 75.0 65.0 29.19 65.0 680 829 1248 2.30 0.13 0.13 0.000
3:10pm 132 3 10 41 90 75.0 65.2 29.19 65.2 681 751 1262 2.46 0.13 0.13 0.000
3:11pm 183 2 4 41 90 75.0 65.3 29.19 65.3 683 751 1271 2.52 0.13 0.13 0.000
3:12pm 184 11 12 41 90 75.0 65.4 29.19 65.0 685 751 1281 2.57 0.13 0.13 0.000
3:13pm 119 4 12 41 90 75.0 65.5 29.19 65.5 682 752 1283 2.63 0.13 0.13 0.000
3:14pm 203 2 12 41 89 75.2 65.6 29.19 65.6 684 831 1291 2.69 0.13 0.13 0.000
3:15pm 195 5 12 41 89 75.2 65.8 29.19 65.8 686 832 1308 2.84 0.13 0.13 0.000
3:16pm 133 6 9 41 88 75.2 65.8 29.19 65.8 682 912 1302 2.79 0.13 0.13 0.000
3:17pm 300 1 9 41 88 75.2 65.9 29.18 65.9 687 912 1315 2.85 0.13 0.13 0.000
3:18pm 156 2 9 41 89 75.2 66.1 29.18 66.1 688 833 1329 3.00 0.13 0.13 0.000
3:19pm 181 2 9 41 89 75.2 66.3 29.18 66.3 689 834 1343 3.14 0.13 0.13 0.000
3:20pm 189 2 9 41 89 75.2 66.4 29.18 66.4 690 834 1351 3.19 0.13 0.13 0.000
3:21pm 187 2 9 41 88 75.2 66.6 29.18 66.6 690 915 1364 3.34 0.13 0.13 0.000
3:22pm 160 6 9 41 87 75.2 66.6 29.18 66.6 690 996 1364 3.28 0.13 0.13 0.000
3:23pm 149 7 9 41 88 75.2 66.8 29.18 66.8 690 916 1377 3.43 0.13 0.13 0.000
3:24pm 247 3 9 41 86 75.2 66.8 29.18 66.8 690 1079 1377 3.37 0.13 0.13 0.000
3:25pm 260 4 9 41 86 75.2 67.0 29.18 67.0 690 1080 1390 3.51 0.13 0.13 0.000
3:26pm 321 1 4 41 88 75.2 67.2 29.18 67.2 690 917 1402 3.65 0.13 0.13 0.000
3:27pm 254 3 6 41 87 75.2 67.2 29.18 67.2 690 999 1402 3.59 0.13 0.13 0.000
3:28pm 193 5 7 41 86 75.2 67.2 29.18 67.2 689 1081 1401 3.53 0.13 0.13 0.000
3:29pm 167 2 7 41 86 75.2 67.3 29.18 67.3 689 1081 1408 3.57 0.13 0.13 0.000
3:30pm 305 2 7 41 86 75.2 67.4 29.18 67.4 689 1082 1414 3.61 0.13 0.13 0.000
3:31pm 281 0 10 41 86 75.2 67.6 29.18 67.6 689 1083 1427 3.75 0.13 0.13 0.000
3:32pm 280 3 10 41 87 75.2 67.6 29.18 67.6 690 1000 1428 3.69 0.13 0.13 0.000
3:33pm 203 4 10 41 86 75.2 67.6 29.18 67.6 691 1083 1429 3.63 0.13 0.13 0.000
3:34pm 201 3 10 41 85 75.2 67.6 29.18 67.6 691 1166 1429 3.57 0.13 0.13 0.000
3:35pm 193 1 10 41 85 75.2 67.6 29.18 67.6 691 1166 1429 3.51 0.13 0.13 0.000
3:36pm 197 1 3 41 86 75.2 67.7 29.18 67.7 691 1083 1436 3.55 0.13 0.13 0.000
3:37pm 147 5 5 41 86 75.2 67.9 29.18 67.9 691 1084 1448 3.69 0.13 0.13 0.000
3:38pm 360 2 6 41 86 75.2 67.9 29.18 67.9 691 1084 1448 3.63 0.13 0.13 0.000
3:39pm 226 1 6 41 85 75.2 68.0 29.18 68.0 692 1168 1456 3.67 0.13 0.13 0.000
3:40pm 181 5 7 41 85 75.2 68.1 29.18 68.1 692 1168 1462 3.71 0.13 0.13 0.000
3:41pm 266 2 5 41 85 75.2 68.1 29.18 68.1 691 1168 1461 3.65 0.13 0.13 0.000
3:42pm 166 3 5 41 85 75.2 68.2 29.18 68.2 693 1169 1470 3.68 0.13 0.13 0.000
3:43pm 243 7 7 41 85 75.2 68.3 29.18 68.3 692 1169 1475 3.72 0.13 0.13 0.000
3:44pm 100 1 9 41 85 75.2 68.4 29.18 68.4 692 1170 1482 3.76 0.13 0.13 0.000
3:45pm 191 3 9 41 84 75.2 68.4 29.18 68.4 692 1254 1482 3.70 0.13 0.13 0.000
3:46pm 160 2 4 41 84 75.2 68.4 29.18 68.4 692 1254 1482 3.64 0.13 0.13 0.000
3:47pm 220 3 10 41 83 75.2 68.4 29.18 68.4 692 1340 1482 3.58 0.13 0.13 0.000
3:48pm 305 2 10 41 83 75.2 68.3 29.18 68.3 691 1339 1474 3.42 0.13 0.13 0.000
3:49pm 183 6 10 41 83 75.2 68.2 29.18 68.2 691 1338 1468 3.26 0.13 0.13 0.000
3:50pm 222 3 10 41 83 75.2 68.2 29.18 68.2 691 1338 1468 3.21 0.13 0.13 0.000
3:51pm 270 2 5 41 84 75.2 68.1 29.18 68.1 691 1253 1461 3.06 0.13 0.13 0.000
3:52pm 270 1 5 41 84 75.2 68.1 29.18 68.1 691 1253 1461 3.01 0.13 0.13 0.000
3:53pm 201 2 5 41 84 75.2 68.1 29.18 68.1 691 1253 1461 2.96 0.13 0.13 0.000
3:54pm 201 0 5 41 84 75.2 68.1 29.18 68.1 691 1253 1461 2.91 0.13 0.13 0.000
3:55pm 137 2 7 41 85 75.2 68.2 29.18 68.2 691 1169 1468 2.96 0.13 0.13 0.000
3:56pm 150 2 2 41 84 75.2 68.2 29.18 68.2 692 1253 1469 2.91 0.13 0.13 0.000
3:57pm 150 2 2 41 84 75.2 68.2 29.18 68.2 692 1253 1469 2.87 0.13 0.13 0.000
3:58pm 150 2 4 41 85 75.2 68.2 29.18 68.2 693 1169 1470 2.82 0.13 0.13 0.000
3:59pm 178 4 6 41 85 75.2 68.3 29.18 68.3 692 1169 1475 2.87 0.13 0.13 0.000
4:00pm 262 4 7 41 84 75.2 68.2 29.18 68.2 692 1253 1469 2.73 0.13 0.13 0.000
4:01pm 159 2 6 41 83 75.2 68.1 29.18 68.1 691 1338 1461 2.58 0.13 0.13 0.000
4:02pm 157 1 7 41 84 75.2 68.1 29.18 68.1 692 1253 1462 2.54 0.13 0.13 0.000
4:03pm 157 2 7 41 84 75.2 67.9 29.18 67.9 692 1252 1450 2.30 0.13 0.13 0.000
4:04pm 146 7 7 41 84 75.0 67.9 29.18 67.9 691 1252 1448 2.26 0.13 0.13 0.000
4:05pm 191 3 10 41 83 75.0 67.9 29.18 67.9 693 1337 1451 2.22 0.13 0.13 0.000
4:06pm 240 4 8 41 83 75.0 67.8 29.18 67.8 691 1336 1442 2.09 0.13 0.13 0.000
4:07pm 237 0 8 41 84 75.0 67.8 29.18 67.8 693 1251 1444 2.05 0.13 0.13 0.000
4:08pm 255 3 8 41 84 75.0 67.8 29.18 67.8 692 1251 1443 2.02 0.13 0.13 0.000
4:09pm 285 3 8 41 84 75.0 67.8 29.18 67.8 692 1251 1443 1.98 0.13 0.13 0.000
4:10pm 187 4 8 41 84 74.9 67.7 29.18 67.7 691 1251 1436 1.85 0.13 0.13 0.000
4:11pm 300 0 4 41 84 74.9 67.8 29.18 67.8 691 1251 1442 1.92 0.13 0.13 0.000
4:12pm 208 0 4 41 85 74.9 67.8 29.18 67.8 692 1167 1443 1.89 0.13 0.13 0.000
4:13pm 206 1 4 41 85 74.9 67.8 29.18 67.8 691 1167 1442 1.85 0.13 0.13 0.000
4:14pm 206 1 4 41 85 74.9 67.9 29.18 67.9 691 1167 1448 1.93 0.13 0.13 0.000
4:15pm 206 0 4 41 85 74.9 68.1 29.18 68.1 692 1168 1462 2.09 0.13 0.13 0.000
4:16pm 206 0 2 41 85 74.9 68.2 29.18 68.2 693 1169 1470 2.16 0.13 0.13 0.000
4:17pm 177 2 4 41 85 74.9 68.3 29.18 68.3 694 1169 1477 2.22 0.13 0.13 0.000
4:18pm 187 4 4 41 84 74.9 68.3 29.18 68.3 693 1254 1476 2.19 0.13 0.13 0.000
4:19pm 106 2 4 41 85 74.9 68.4 29.18 68.4 692 1170 1482 2.25 0.13 0.13 0.000
4:20pm 153 3 4 41 84 74.7 68.5 29.18 68.5 692 1255 1488 2.31 0.13 0.13 0.000
4:21pm 281 0 6 41 85 74.9 68.5 29.18 68.5 693 1170 1489 2.27 0.13 0.13 0.000
4:22pm 222 2 6 41 84 74.7 68.6 29.18 68.6 694 1255 1497 2.33 0.13 0.13 0.000
4:23pm 222 1 6 41 85 74.7 68.7 29.18 68.7 693 1171 1502 2.39 0.13 0.13 0.000
4:24pm 208 3 6 41 85 74.7 68.7 29.18 68.7 694 1171 1503 2.35 0.13 0.13 0.000
4:25pm 251 2 6 43 85 74.7 68.8 29.18 68.8 694 1172 1509 2.42 0.13 0.13 0.000
4:26pm 250 1 3 41 85 74.7 68.7 29.18 68.7 694 1171 1503 2.28 0.13 0.13 0.000
4:27pm 250 0 3 41 85 74.7 68.8 29.18 68.8 694 1172 1509 2.34 0.13 0.13 0.000
4:28pm 212 0 3 41 85 74.7 68.8 29.18 68.8 694 1172 1509 2.30 0.13 0.13 0.000
4:29pm 212 0 3 41 85 74.7 68.9 29.18 68.9 694 1172 1516 2.36 0.13 0.13 0.000
4:30pm 287 5 5 41 84 74.7 68.9 29.18 68.9 694 1257 1516 2.32 0.13 0.13 0.000
4:31pm 212 3 5 41 84 74.7 68.8 29.18 68.8 693 1256 1508 2.18 0.13 0.13 0.000
4:32pm 252 2 5 41 83 74.7 68.8 29.18 68.8 692 1342 1507 2.15 0.13 0.13 0.000
4:33pm 229 1 5 41 83 74.7 68.8 29.18 68.8 692 1342 1507 2.11 0.13 0.13 0.000
4:34pm 211 9 9 41 84 74.7 68.9 29.18 68.9 692 1257 1514 2.18 0.13 0.13 0.000
4:35pm 226 3 9 41 83 74.7 68.8 29.18 68.8 692 1342 1507 2.04 0.13 0.13 0.000
4:36pm 226 1 5 41 83 74.9 68.7 29.18 68.7 691 1341 1500 1.91 0.13 0.13 0.000
4:37pm 227 0 5 41 83 74.9 68.7 29.18 68.7 692 1341 1501 1.88 0.13 0.13 0.000
4:38pm 167 2 5 41 83 74.9 68.7 29.18 68.7 691 1341 1500 1.85 0.13 0.13 0.000
4:39pm 163 9 9 41 83 74.9 68.7 29.18 68.7 690 1341 1499 1.81 0.13 0.13 0.000
4:40pm 295 1 9 41 82 74.9 68.7 29.18 68.7 690 1428 1499 1.79 0.13 0.13 0.000
4:41pm 220 1 4 41 83 74.9 68.8 29.18 68.8 690 1342 1505 1.85 0.13 0.13 0.000
4:42pm 220 0 4 41 83 74.9 68.8 29.18 68.8 690 1342 1505 1.82 0.13 0.13 0.000
4:43pm 316 2 6 41 83 74.9 68.8 29.18 68.8 690 1342 1505 1.80 0.13 0.13 0.000
4:44pm 168 1 6 41 83 74.9 68.7 29.18 68.7 690 1341 1499 1.67 0.13 0.13 0.000
4:45pm 168 0 6 41 83 74.9 68.7 29.18 68.7 690 1341 1499 1.64 0.13 0.13 0.000
4:46pm 169 0 3 41 83 74.9 68.6 29.18 68.6 690 1341 1492 1.51 0.13 0.13 0.000
4:47pm 194 4 9 41 83 74.9 68.6 29.18 68.6 691 1341 1493 1.49 0.13 0.13 0.000
4:48pm 195 3 9 41 83 74.9 68.7 29.18 68.7 694 1341 1503 1.56 0.13 0.13 0.000
4:49pm 184 0 9 41 83 74.9 68.7 29.17 68.7 697 1341 1508 1.54 0.13 0.13 0.000
4:50pm 240 7 9 41 83 74.9 68.7 29.18 68.7 695 1341 1504 1.51 0.13 0.13 0.000
4:51pm 210 1 8 41 82 74.9 68.8 29.18 68.8 692 1428 1507 1.59 0.13 0.13 0.000
4:52pm 251 6 8 41 83 74.9 68.9 29.18 68.9 690 1342 1511 1.66 0.13 0.13 0.000
4:53pm 222 0 8 41 82 74.9 68.9 29.18 68.9 690 1429 1511 1.63 0.13 0.13 0.000
4:54pm 222 2 8 41 83 74.9 69.0 29.18 69.0 690 1343 1518 1.71 0.13 0.13 0.000
4:55pm 165 6 8 41 83 74.9 69.0 29.18 69.0 691 1343 1519 1.68 0.13 0.13 0.000
4:56pm 59 4 7 41 82 74.9 69.0 29.18 69.0 691 1429 1519 1.65 0.13 0.13 0.000
4:57pm 187 5 7 41 82 74.9 69.1 29.18 69.1 691 1430 1525 1.72 0.13 0.13 0.000
4:58pm 216 1 7 41 82 74.9 69.1 29.18 69.1 692 1430 1526 1.69 0.13 0.13 0.000
4:59pm 166 5 7 41 83 74.9 69.1 29.18 69.1 691 1344 1525 1.67 0.13 0.13 0.000
5:00pm 212 3 7 41 82 74.9 69.1 29.18 69.1 691 1430 1525 1.64 0.13 0.13 0.000
5:01pm 212 0 3 41 82 74.9 69.1 29.18 69.1 691 1430 1525 1.61 0.13 0.13 0.000
5:02pm 218 2 4 41 82 74.9 69.2 29.18 69.2 691 1431 1532 1.68 0.13 0.13 0.000
5:03pm 202 6 6 41 83 74.9 69.2 29.18 69.2 691 1344 1532 1.66 0.13 0.13 0.000
5:04pm 194 2 8 41 82 74.9 69.2 29.18 69.2 690 1431 1531 1.63 0.13 0.13 0.000
5:05pm 196 0 8 41 82 74.9 69.4 29.18 69.4 690 1432 1543 1.80 0.13 0.13 0.000
5:06pm 210 3 4 41 82 74.9 69.3 29.18 69.3 690 1431 1537 1.67 0.13 0.13 0.000
5:07pm 210 0 4 41 82 74.9 69.4 29.18 69.4 690 1432 1543 1.74 0.13 0.13 0.000
5:08pm 210 2 4 41 82 74.9 69.4 29.18 69.4 690 1432 1543 1.71 0.13 0.13 0.000
5:09pm 216 1 4 41 82 74.9 69.5 29.18 69.5 690 1432 1550 1.79 0.13 0.13 0.000
5:10pm 224 2 4 41 82 74.9 69.4 29.18 69.4 690 1432 1543 1.66 0.13 0.13 0.000
5:11pm 225 2 3 41 82 74.9 69.4 29.18 69.4 690 1432 1543 1.63 0.13 0.13 0.000
5:12pm 197 5 5 41 82 74.9 69.4 29.18 69.4 690 1432 1543 1.60 0.13 0.13 0.000
5:13pm 169 2 5 41 82 74.9 69.4 29.18 69.4 690 1432 1543 1.58 0.13 0.13 0.000
5:14pm 169 2 5 41 82 74.9 69.3 29.18 69.3 690 1431 1537 1.45 0.13 0.13 0.000
5:15pm 197 3 5 41 82 74.9 69.2 29.18 69.2 690 1431 1531 1.33 0.13 0.13 0.000
5:16pm 216 3 3 41 82 74.9 69.2 29.18 69.2 689 1431 1529 1.31 0.13 0.13 0.000
5:17pm 207 2 4 41 82 74.9 69.2 29.18 69.2 689 1431 1529 1.29 0.13 0.13 0.000
5:18pm 176 4 5 41 82 74.9 69.1 29.18 69.1 689 1430 1523 1.17 0.13 0.13 0.000
5:19pm 277 3 5 41 83 74.9 69.1 29.18 69.1 689 1344 1523 1.15 0.13 0.13 0.000
5:20pm 181 1 5 41 82 74.9 69.1 29.18 69.1 689 1430 1523 1.13 0.13 0.13 0.000
5:21pm 182 2 3 41 83 74.9 69.1 29.18 69.1 687 1344 1521 1.11 0.13 0.13 0.000
5:22pm 182 0 3 41 82 74.9 69.0 29.18 69.0 688 1429 1515 0.99 0.13 0.13 0.000
5:23pm 182 0 3 41 83 74.9 69.0 29.18 69.0 688 1343 1515 0.98 0.13 0.13 0.000
5:24pm 182 0 3 41 83 74.9 69.1 29.18 69.1 689 1344 1523 1.06 0.13 0.13 0.000
5:25pm 182 3 3 41 84 74.9 69.0 29.18 69.0 689 1257 1517 0.94 0.13 0.13 0.000
5:26pm 182 1 3 41 83 74.9 69.1 29.18 69.1 690 1344 1524 1.03 0.13 0.13 0.000
5:27pm 229 2 3 41 84 74.9 69.0 29.18 69.0 690 1257 1518 0.91 0.13 0.13 0.000
5:28pm 133 2 4 41 84 74.9 69.0 29.18 69.0 690 1257 1518 0.89 0.13 0.13 0.000
5:29pm 220 1 4 41 83 74.9 69.0 29.18 69.0 690 1343 1518 0.88 0.13 0.13 0.000
5:30pm 186 5 5 41 83 74.9 69.0 29.18 69.0 690 1343 1518 0.86 0.13 0.13 0.000
5:31pm 207 0 5 41 83 74.9 69.1 29.18 69.1 690 1344 1524 0.95 0.13 0.13 0.000
5:32pm 225 1 5 41 83 74.9 69.1 29.18 69.1 690 1344 1524 0.93 0.13 0.13 0.000
5:33pm 283 3 8 41 83 74.9 69.1 29.18 69.1 690 1344 1524 0.92 0.13 0.13 0.000
5:34pm 276 0 8 41 82 74.9 69.1 29.18 69.1 689 1430 1523 0.90 0.13 0.13 0.000
5:35pm 177 4 8 41 82 74.9 69.1 29.18 69.1 689 1430 1523 0.89 0.13 0.13 0.000
5:36pm 185 3 4 41 82 74.9 69.2 29.18 69.2 690 1431 1531 0.97 0.13 0.13 0.000
5:37pm 124 1 6 41 82 74.9 69.2 29.18 69.2 690 1431 1531 0.95 0.13 0.13 0.000
5:38pm 124 0 6 41 82 74.9 69.2 29.18 69.2 690 1431 1531 0.94 0.13 0.13 0.000
5:39pm 229 1 6 41 82 74.7 69.3 29.18 69.3 690 1431 1537 1.02 0.13 0.13 0.000
5:40pm 278 1 6 41 82 74.7 69.3 29.18 69.3 690 1431 1537 1.01 0.13 0.13 0.000
5:41pm 182 2 4 41 82 74.7 69.3 29.18 69.3 688 1431 1535 0.99 0.13 0.13 0.000
5:42pm 179 1 4 41 82 74.7 69.4 29.18 69.4 689 1432 1542 1.07 0.13 0.13 0.000
5:43pm 182 1 5 41 82 74.7 69.4 29.18 69.4 689 1432 1542 1.05 0.13 0.13 0.000
5:44pm 182 0 5 41 83 74.7 69.4 29.18 69.4 688 1345 1541 1.04 0.13 0.13 0.000
5:45pm 182 1 5 41 82 74.7 69.4 29.18 69.4 687 1432 1540 1.02 0.13 0.13 0.000
5:46pm 266 2 4 41 82 74.5 69.4 29.19 69.4 686 1432 1539 1.00 0.13 0.13 0.000
5:47pm 210 0 4 41 82 74.5 69.4 29.19 69.4 686 1432 1539 0.99 0.13 0.13 0.000
5:48pm 172 3 5 41 82 74.5 69.4 29.19 69.4 684 1432 1536 0.97 0.13 0.13 0.000
5:49pm 154 5 6 41 82 74.5 69.4 29.19 69.4 684 1432 1535 0.95 0.13 0.13 0.000
5:50pm 164 1 6 41 82 74.5 69.4 29.19 69.4 684 1432 1535 0.94 0.13 0.13 0.000
5:51pm 164 2 2 41 82 74.3 69.3 29.19 69.3 682 1431 1527 0.82 0.13 0.13 0.000
5:52pm 164 1 2 41 82 74.3 69.3 29.19 69.3 679 1431 1523 0.81 0.13 0.13 0.000
5:53pm 207 3 4 41 82 74.3 69.2 29.19 69.2 678 1431 1516 0.70 0.13 0.13 0.000
5:54pm 191 3 4 41 83 74.3 69.3 29.19 69.3 679 1345 1523 0.78 0.13 0.13 0.000
5:55pm 155 2 4 41 83 74.2 69.2 29.20 69.2 677 1344 1515 0.67 0.13 0.13 0.000
5:56pm 155 0 2 41 83 74.2 69.1 29.20 69.1 677 1344 1508 0.56 0.13 0.13 0.000
5:57pm 155 0 2 41 83 74.2 69.0 29.20 69.0 677 1343 1502 0.45 0.13 0.13 0.000
5:58pm 191 4 4 41 83 74.2 69.0 29.20 69.0 677 1343 1502 0.45 0.13 0.13 0.000
5:59pm 191 1 4 41 83 74.2 69.0 29.20 69.0 676 1343 1501 0.44 0.13 0.13 0.000
6:00pm 204 3 4 41 83 74.2 68.8 29.20 68.8 676 1342 1488 0.23 0.13 0.13 0.000
6:01pm 227 2 5 41 83 74.2 68.8 29.20 68.8 675 1342 1487 0.23 0.13 0.13 0.000
6:02pm 216 4 6 41 83 74.0 68.6 29.20 68.6 675 1341 1474 0.03 0.13 0.13 0.000
6:03pm 190 4 6 41 84 74.0 68.5 29.20 68.5 674 1255 1466 -0.07 0.13 0.13 0.000
6:04pm 180 5 6 41 84 74.0 68.4 29.20 68.4 674 1254 1460 -0.17 0.13 0.13 0.000
6:05pm 185 2 6 41 84 74.0 68.3 29.20 68.3 674 1254 1454 -0.27 0.13 0.13 0.000
6:06pm 187 1 4 41 84 74.0 68.2 29.20 68.2 674 1253 1447 -0.36 0.13 0.13 0.000
6:07pm 185 3 4 41 85 74.0 68.1 29.20 68.1 675 1168 1442 -0.46 0.13 0.13 0.000
6:08pm 185 1 4 41 85 74.0 68.1 29.20 68.1 675 1168 1442 -0.45 0.13 0.13 0.000
6:09pm 181 2 4 41 85 74.0 68.0 29.20 68.0 675 1168 1436 -0.54 0.13 0.13 0.000
6:10pm 182 4 5 41 85 74.0 68.0 29.20 68.0 675 1168 1436 -0.53 0.13 0.13 0.000
6:11pm 183 2 4 41 85 74.0 67.9 29.20 67.9 675 1167 1429 -0.62 0.13 0.13 0.000
6:12pm 163 2 5 41 85 74.0 67.9 29.20 67.9 676 1167 1430 -0.61 0.13 0.13 0.000
6:13pm 134 2 5 41 85 74.0 67.9 29.20 67.9 677 1167 1431 -0.60 0.13 0.13 0.000
6:14pm 143 2 5 41 85 74.0 67.8 29.20 67.8 676 1167 1424 -0.69 0.13 0.13 0.000
6:15pm 148 0 5 41 86 74.0 67.7 29.20 67.7 674 1083 1415 -0.78 0.13 0.13 0.000
6:16pm 148 0 2 41 86 74.0 67.7 29.20 67.7 674 1083 1415 -0.77 0.13 0.13 0.000
6:17pm 148 0 2 41 86 74.0 67.7 29.20 67.7 674 1083 1415 -0.75 0.13 0.13 0.000
6:18pm 151 2 3 41 86 74.0 67.7 29.20 67.7 674 1083 1415 -0.74 0.13 0.13 0.000
6:19pm 151 0 3 41 86 74.0 67.7 29.20 67.7 674 1083 1415 -0.73 0.13 0.13 0.000
6:20pm 151 0 3 41 86 74.0 67.7 29.20 67.7 675 1083 1416 -0.72 0.13 0.13 0.000
6:21pm 151 0 1 41 86 74.0 67.7 29.20 67.7 675 1083 1416 -0.71 0.13 0.13 0.000
6:22pm 146 3 5 41 86 74.0 67.7 29.20 67.7 675 1083 1416 -0.69 0.13 0.13 0.000
6:23pm 147 1 5 41 85 74.0 67.7 29.20 67.7 675 1167 1416 -0.68 0.13 0.13 0.000
6:24pm 147 1 5 41 86 74.0 67.7 29.20 67.7 674 1083 1415 -0.67 0.13 0.13 0.000
6:25pm 147 0 5 41 86 74.0 67.6 29.20 67.6 674 1083 1409 -0.76 0.13 0.13 0.000
6:26pm 147 0 0 41 86 74.2 67.6 29.20 67.6 673 1083 1408 -0.75 0.13 0.13 0.000
6:27pm 147 0 0 41 86 74.2 67.6 29.20 67.6 673 1083 1408 -0.73 0.13 0.13 0.000
6:28pm 147 2 2 41 86 74.2 67.6 29.20 67.6 673 1083 1408 -0.72 0.13 0.13 0.000
6:29pm 147 2 3 41 86 74.2 67.6 29.20 67.6 673 1083 1408 -0.71 0.13 0.13 0.000
6:30pm 147 2 3 41 86 74.2 67.6 29.20 67.6 674 1083 1409 -0.70 0.13 0.13 0.000
6:31pm 145 4 4 41 86 74.2 67.6 29.20 67.6 675 1083 1410 -0.69 0.13 0.13 0.000
6:32pm 145 4 4 41 86 74.2 67.6 29.20 67.6 677 1083 1412 -0.68 0.13 0.13 0.000
6:33pm 145 2 4 41 86 74.2 67.6 29.19 67.6 678 1083 1413 -0.66 0.13 0.13 0.000
6:34pm 145 1 4 41 86 74.2 67.5 29.20 67.5 677 1082 1406 -0.75 0.13 0.13 0.000
6:35pm 155 2 4 41 86 74.2 67.6 29.20 67.6 675 1083 1410 -0.64 0.13 0.13 0.000
6:36pm 155 0 3 41 86 74.2 67.5 29.20 67.5 674 1082 1402 -0.73 0.13 0.13 0.000
6:37pm 155 0 3 41 86 74.2 67.5 29.20 67.5 674 1082 1402 -0.72 0.13 0.13 0.000
6:38pm 155 0 3 41 86 74.2 67.5 29.20 67.5 674 1082 1402 -0.71 0.13 0.13 0.000
6:39pm 155 0 3 41 87 74.2 67.5 29.20 67.5 674 1000 1402 -0.69 0.13 0.13 0.000
6:40pm 155 2 3 41 87 74.2 67.6 29.20 67.6 674 1000 1409 -0.58 0.13 0.13 0.000
6:41pm 155 1 3 41 86 74.2 67.5 29.20 67.5 674 1082 1402 -0.67 0.13 0.13 0.000
6:42pm 155 0 3 43 86 74.2 67.5 29.20 67.5 674 1082 1402 -0.66 0.13 0.13 0.000
6:43pm 155 2 3 41 87 74.2 67.5 29.20 67.5 675 1000 1403 -0.65 0.13 0.13 0.000
6:44pm 155 3 3 41 86 74.2 67.4 29.20 67.4 675 1082 1397 -0.74 0.13 0.13 0.000
6:45pm 155 3 3 41 87 74.2 67.5 29.20 67.5 675 1000 1403 -0.63 0.13 0.13 0.000
6:46pm 155 3 4 41 87 74.2 67.4 29.20 67.4 675 1000 1397 -0.71 0.13 0.13 0.000
6:47pm 155 0 4 41 87 74.2 67.4 29.20 67.4 675 1000 1397 -0.70 0.13 0.13 0.000
6:48pm 155 1 4 41 87 74.2 67.4 29.20 67.4 675 1000 1397 -0.69 0.13 0.13 0.000
6:49pm 155 1 4 41 87 74.2 67.4 29.20 67.4 675 1000 1397 -0.68 0.13 0.13 0.000
6:50pm 155 0 4 41 87 74.2 67.4 29.20 67.4 675 1000 1397 -0.67 0.13 0.13 0.000
6:51pm 155 1 2 41 87 74.2 67.4 29.20 67.4 675 1000 1397 -0.66 0.13 0.13 0.000
6:52pm 155 1 2 41 87 74.2 67.5 29.20 67.5 674 1000 1402 -0.55 0.13 0.13 0.000
6:53pm 155 0 2 41 87 74.2 67.5 29.20 67.5 675 1000 1403 -0.54 0.13 0.13 0.000
6:54pm 156 2 3 41 87 74.2 67.5 29.20 67.5 675 1000 1403 -0.53 0.13 0.13 0.000
6:55pm 150 3 3 41 87 74.2 67.5 29.20 67.5 675 1000 1403 -0.52 0.13 0.13 0.000
6:56pm 152 1 4 41 87 74.2 67.5 29.20 67.5 675 1000 1403 -0.51 0.13 0.13 0.000
6:57pm 152 1 4 41 87 74.2 67.5 29.20 67.5 675 1000 1403 -0.50 0.13 0.13 0.000
6:58pm 189 3 4 41 87 74.2 67.5 29.20 67.5 675 1000 1403 -0.50 0.13 0.13 0.000
6:59pm 189 3 4 41 87 74.2 67.5 29.20 67.5 674 1000 1402 -0.49 0.13 0.13 0.000
7:00pm 189 1 4 41 87 74.2 67.5 29.20 67.5 674 1000 1402 -0.48 0.13 0.13 0.000
7:01pm 210 1 4 41 87 74.2 67.5 29.20 67.5 674 1000 1402 -0.47 0.13 0.13 0.000
7:02pm 161 2 4 41 87 74.2 67.4 29.20 67.4 674 1000 1396 -0.56 0.13 0.13 0.000
7:03pm 161 1 4 41 87 74.2 67.4 29.20 67.4 674 1000 1396 -0.55 0.13 0.13 0.000
7:04pm 161 0 4 41 87 74.2 67.4 29.20 67.4 674 1000 1396 -0.54 0.13 0.13 0.000
7:05pm 161 1 4 41 87 74.2 67.5 29.20 67.5 674 1000 1402 -0.43 0.13 0.13 0.000
7:06pm 125 4 4 41 87 74.2 67.4 29.20 67.4 674 1000 1396 -0.53 0.13 0.13 0.000
7:07pm 191 0 4 41 87 74.2 67.4 29.20 67.4 674 1000 1396 -0.52 0.13 0.13 0.000
7:08pm 191 4 4 41 87 74.2 67.4 29.20 67.4 674 1000 1396 -0.51 0.13 0.13 0.000
7:09pm 184 2 4 41 87 74.2 67.4 29.20 67.4 674 1000 1396 -0.50 0.13 0.13 0.000
7:10pm 184 1 4 41 87 74.2 67.3 29.20 67.3 675 999 1391 -0.59 0.13 0.13 0.000
7:11pm 184 2 3 41 87 74.2 67.3 29.20 67.3 675 999 1391 -0.58 0.13 0.13 0.000
7:12pm 184 2 3 41 87 74.2 67.3 29.20 67.3 675 999 1391 -0.57 0.13 0.13 0.000
7:13pm 184 0 3 41 87 74.2 67.2 29.20 67.2 675 999 1384 -0.66 0.13 0.13 0.000
7:14pm 177 3 4 41 87 74.2 67.2 29.20 67.2 676 999 1385 -0.65 0.13 0.13 0.000
7:15pm 177 1 4 41 87 74.2 67.2 29.20 67.2 675 999 1384 -0.64 0.13 0.13 0.000
7:16pm 177 1 1 41 87 74.2 67.2 29.20 67.2 675 999 1384 -0.63 0.13 0.13 0.000
7:17pm 177 0 3 41 87 74.2 67.2 29.20 67.2 675 999 1384 -0.62 0.13 0.13 0.000
7:18pm 177 1 3 41 87 74.2 67.2 29.20 67.2 675 999 1384 -0.61 0.13 0.13 0.000
7:19pm 177 1 3 41 87 74.2 67.2 29.20 67.2 674 999 1383 -0.60 0.13 0.13 0.000
7:20pm 177 2 3 41 88 74.2 67.2 29.20 67.2 675 917 1384 -0.59 0.13 0.13 0.000
7:21pm 177 3 3 42 87 74.2 67.2 29.20 67.2 675 999 1384 -0.58 0.13 0.13 0.000
7:22pm 177 2 3 42 87 74.2 67.2 29.20 67.2 675 999 1384 -0.57 0.13 0.13 0.000
7:23pm 177 2 3 41 87 74.2 67.2 29.20 67.2 677 999 1386 -0.56 0.13 0.13 0.000
7:24pm 177 3 3 42 87 74.2 67.2 29.19 67.2 678 999 1388 -0.55 0.13 0.13 0.000
7:25pm 177 0 3 42 87 74.2 67.1 29.19 67.1 678 998 1381 -0.64 0.13 0.13 0.000
7:26pm 177 1 3 42 87 74.2 67.2 29.20 67.2 677 999 1386 -0.53 0.13 0.13 0.000
7:27pm 177 3 3 41 88 74.2 67.1 29.20 67.1 675 917 1378 -0.62 0.13 0.13 0.000
7:28pm 177 1 3 42 88 74.2 67.1 29.20 67.1 675 917 1378 -0.61 0.13 0.13 0.000
7:29pm 177 1 3 42 88 74.2 67.0 29.20 67.0 675 917 1371 -0.70 0.13 0.13 0.000
7:30pm 177 0 3 42 88 74.2 67.0 29.20 67.0 675 917 1371 -0.69 0.13 0.13 0.000
7:31pm 177 2 3 42 88 74.2 67.0 29.20 67.0 676 917 1372 -0.67 0.13 0.13 0.000
7:32pm 181 3 4 42 88 74.2 67.0 29.20 67.0 677 917 1374 -0.66 0.13 0.13 0.000
7:33pm 181 2 4 42 88 74.2 67.0 29.20 67.0 677 917 1374 -0.65 0.13 0.13 0.000
7:34pm 181 3 4 41 88 74.2 66.9 29.20 66.9 676 916 1366 -0.74 0.13 0.13 0.000
7:35pm 181 0 4 42 88 74.2 66.9 29.20 66.9 675 916 1365 -0.73 0.13 0.13 0.000
7:36pm 181 1 1 42 88 74.2 66.9 29.20 66.9 674 916 1364 -0.72 0.13 0.13 0.000
7:37pm 181 1 2 41 88 74.2 66.9 29.20 66.9 674 916 1364 -0.70 0.13 0.13 0.000
7:38pm 181 1 2 41 88 74.2 66.9 29.20 66.9 674 916 1364 -0.69 0.13 0.13 0.000
7:39pm 181 1 2 41 88 74.2 66.9 29.20 66.9 674 916 1364 -0.68 0.13 0.13 0.000
7:40pm 181 0 2 42 88 74.2 66.9 29.20 66.9 673 916 1363 -0.67 0.13 0.13 0.000
7:41pm 181 1 1 41 88 74.2 66.8 29.20 66.8 673 916 1356 -0.76 0.13 0.13 0.000
7:42pm 181 1 3 42 88 74.2 66.8 29.20 66.8 673 916 1356 -0.75 0.13 0.13 0.000
7:43pm 181 2 3 42 88 74.2 66.8 29.20 66.8 673 916 1356 -0.73 0.13 0.13 0.000
7:44pm 181 1 3 41 89 74.2 66.8 29.20 66.8 673 835 1356 -0.72 0.13 0.13 0.000
7:45pm 181 2 3 42 89 74.2 66.8 29.20 66.8 674 835 1357 -0.71 0.13 0.13 0.000
7:46pm 181 0 2 42 89 74.2 66.7 29.20 66.7 674 835 1351 -0.80 0.13 0.13 0.000
7:47pm 181 3 3 42 89 74.2 66.7 29.20 66.7 674 835 1351 -0.79 0.13 0.13 0.000
7:48pm 181 1 3 42 89 74.2 66.7 29.20 66.7 674 835 1351 -0.77 0.13 0.13 0.000
7:49pm 181 1 3 42 89 74.2 66.6 29.20 66.6 673 835 1343 -0.86 0.13 0.13 0.000
7:50pm 181 1 3 42 89 74.2 66.6 29.20 66.6 673 835 1343 -0.85 0.13 0.13 0.000
7:51pm 181 1 2 42 89 74.2 66.6 29.20 66.6 673 835 1343 -0.83 0.13 0.13 0.000
7:52pm 181 0 2 42 89 74.2 66.6 29.20 66.6 673 835 1343 -0.82 0.13 0.13 0.000
7:53pm 181 1 3 42 89 74.2 66.6 29.20 66.6 672 835 1342 -0.80 0.13 0.13 0.000
7:54pm 181 2 3 42 89 74.2 66.5 29.20 66.5 672 834 1336 -0.89 0.13 0.13 0.000
7:55pm 181 4 4 42 89 74.2 66.5 29.20 66.5 671 834 1335 -0.88 0.13 0.13 0.000
7:56pm 168 2 4 42 89 74.3 66.5 29.20 66.5 673 834 1337 -0.86 0.13 0.13 0.000
7:57pm 168 2 4 42 89 74.3 66.5 29.20 66.5 673 834 1337 -0.85 0.13 0.13 0.000
7:58pm 168 1 4 42 89 74.3 66.5 29.20 66.5 673 834 1337 -0.83 0.13 0.13 0.000
7:59pm 168 3 4 42 89 74.3 66.4 29.20 66.4 673 834 1330 -0.92 0.13 0.13 0.000
8:00pm 170 2 4 42 89 74.3 66.4 29.20 66.4 673 834 1330 -0.90 0.13 0.13 0.000
8:01pm 170 0 3 42 89 74.3 66.4 29.20 66.4 673 834 1330 -0.89 0.13 0.13 0.000
8:02pm 176 4 4 42 89 74.3 66.4 29.20 66.4 673 834 1330 -0.87 0.13 0.13 0.000
8:03pm 176 4 6 42 89 74.3 66.3 29.20 66.3 672 834 1323 -0.96 0.13 0.13 0.000
8:04pm 177 0 6 42 89 74.3 66.3 29.20 66.3 668 834 1317 -0.94 0.13 0.13 0.000
8:05pm 177 0 6 42 89 74.3 66.3 29.21 66.3 663 834 1312 -0.93 0.13 0.13 0.000
8:06pm 187 2 4 42 89 74.3 66.2 29.21 66.2 663 833 1305 -1.01 0.13 0.13 0.000
8:07pm 187 0 4 42 89 74.3 66.2 29.21 66.2 661 833 1303 -0.99 0.13 0.13 0.000
8:08pm 187 0 4 42 89 74.3 66.2 29.21 66.2 660 833 1302 -0.98 0.13 0.13 0.000
8:09pm 187 2 4 42 90 74.3 66.2 29.21 66.2 659 754 1301 -0.96 0.13 0.13 0.000
8:10pm 187 3 4 42 90 74.3 66.2 29.21 66.2 659 754 1301 -0.94 0.13 0.13 0.000
8:11pm 187 0 3 42 90 74.3 66.2 29.21 66.2 659 754 1301 -0.93 0.13 0.13 0.000
8:12pm 187 2 3 42 90 74.3 66.1 29.21 66.1 659 753 1294 -1.01 0.13 0.13 0.000
8:13pm 187 2 3 42 90 74.3 66.2 29.21 66.2 659 754 1299 -0.89 0.13 0.13 0.000
8:14pm 187 0 3 42 90 74.3 66.2 29.21 66.2 659 754 1299 -0.88 0.13 0.13 0.000
8:15pm 187 0 3 42 90 74.3 66.1 29.22 66.1 658 753 1292 -0.96 0.13 0.13 0.000
8:16pm 187 3 3 42 90 74.3 66.2 29.21 66.2 659 754 1299 -0.85 0.13 0.13 0.000
8:17pm 187 2 4 42 90 74.3 66.1 29.21 66.1 659 753 1294 -0.93 0.13 0.13 0.000
8:18pm 187 2 4 42 90 74.3 66.2 29.21 66.2 660 754 1302 -0.82 0.13 0.13 0.000
8:19pm 165 1 4 42 90 74.2 66.1 29.21 66.1 661 753 1296 -0.90 0.13 0.13 0.000
8:20pm 165 1 4 42 90 74.2 66.1 29.21 66.1 660 753 1295 -0.89 0.13 0.13 0.000
8:21pm 165 1 2 42 90 74.2 66.1 29.21 66.1 659 753 1294 -0.87 0.13 0.13 0.000
8:22pm 220 2 2 42 90 74.2 66.1 29.21 66.1 659 753 1293 -0.86 0.13 0.13 0.000
8:23pm 221 0 3 42 90 74.2 66.1 29.21 66.1 659 753 1293 -0.85 0.13 0.13 0.000
8:24pm 222 2 3 42 90 74.2 66.1 29.21 66.1 659 753 1294 -0.83 0.13 0.13 0.000
8:25pm 178 2 4 42 89 74.0 66.1 29.21 66.1 659 833 1294 -0.82 0.13 0.13 0.000
8:26pm 178 0 2 42 89 74.0 66.1 29.21 66.1 659 833 1294 -0.80 0.13 0.13 0.000
8:27pm 170 2 4 42 89 74.0 66.1 29.21 66.1 659 833 1294 -0.79 0.13 0.13 0.000
8:28pm 170 0 4 42 89 74.0 66.1 29.21 66.1 659 833 1294 -0.78 0.13 0.13 0.000
8:29pm 170 0 4 42 90 74.0 66.1 29.21 66.1 659 753 1293 -0.77 0.13 0.13 0.000
8:30pm 170 1 4 42 90 74.0 66.1 29.21 66.1 659 753 1294 -0.75 0.13 0.13 0.000
8:31pm 170 0 1 42 90 74.0 66.1 29.21 66.1 659 753 1294 -0.74 0.13 0.13 0.000
8:32pm 170 0 1 42 90 74.0 66.1 29.21 66.1 659 753 1294 -0.73 0.13 0.13 0.000
8:33pm 170 0 1 42 90 74.0 66.0 29.21 66.0 659 753 1288 -0.81 0.13 0.13 0.000
8:34pm 170 0 1 42 89 74.0 66.1 29.21 66.1 659 833 1294 -0.70 0.13 0.13 0.000
8:35pm 170 2 3 42 89 74.0 66.0 29.21 66.0 659 833 1288 -0.79 0.13 0.13 0.000
8:36pm 170 0 2 42 89 74.0 66.0 29.21 66.0 659 833 1288 -0.78 0.13 0.13 0.000
8:37pm 170 0 2 42 89 74.0 66.0 29.21 66.0 659 833 1288 -0.76 0.13 0.13 0.000
8:38pm 170 0 2 42 89 74.0 66.0 29.21 66.0 659 833 1288 -0.75 0.13 0.13 0.000
8:39pm 170 1 2 42 90 74.0 66.0 29.21 66.0 659 753 1288 -0.74 0.13 0.13 0.000
8:40pm 170 0 2 42 90 74.0 66.0 29.21 66.0 659 753 1286 -0.73 0.13 0.13 0.000
8:41pm 170 0 0 42 90 74.0 66.0 29.22 66.0 658 753 1285 -0.71 0.13 0.13 0.000
8:42pm 170 0 0 42 90 74.0 66.0 29.22 66.0 657 753 1284 -0.70 0.13 0.13 0.000
8:43pm 170 1 1 42 90 74.0 65.9 29.22 65.9 656 753 1277 -0.79 0.13 0.13 0.000
8:44pm 170 0 1 42 90 74.0 65.9 29.22 65.9 655 753 1276 -0.77 0.13 0.13 0.000
8:45pm 170 0 1 42 90 74.0 65.9 29.22 65.9 655 753 1276 -0.76 0.13 0.13 0.000
8:46pm 170 0 0 42 90 74.0 65.9 29.22 65.9 654 753 1274 -0.75 0.13 0.13 0.000
8:47pm 170 0 0 42 90 74.0 65.8 29.22 65.8 653 752 1267 -0.84 0.13 0.13 0.000
8:48pm 170 0 1 42 90 74.0 65.9 29.22 65.9 652 753 1272 -0.72 0.13 0.13 0.000
8:49pm 170 0 1 42 90 74.0 65.8 29.22 65.8 651 752 1265 -0.81 0.13 0.13 0.000
8:50pm 170 0 1 42 90 74.0 65.8 29.22 65.8 649 752 1262 -0.80 0.13 0.13 0.000
8:51pm 170 0 0 42 90 74.0 65.8 29.23 65.8 648 752 1261 -0.78 0.13 0.13 0.000
8:52pm 170 0 0 42 90 74.0 65.7 29.23 65.7 648 752 1255 -0.87 0.13 0.13 0.000
8:53pm 170 0 0 42 91 74.0 65.7 29.23 65.7 648 674 1255 -0.85 0.13 0.13 0.000
8:54pm 170 0 0 42 91 74.0 65.7 29.22 65.7 649 674 1256 -0.84 0.13 0.13 0.000
8:55pm 170 0 0 42 91 74.0 65.7 29.22 65.7 649 674 1256 -0.83 0.13 0.13 0.000
|
Data provided from: Mark Hofmann's Bel Air, MD Weather Station |